Latitude: N 50° 09' 49" Longitude: W 05° 11' 53" Elevation: 168m ASL

There are 3 visitors online

Adverts

<- Previous Day | Today | Next Day ->

All Data for 22 March 2018

Time
A - D
Temp
A - D
Dew Point
A - D
Humidity
A - D
Pressure
A - D
Wind
A - D
Wind Dir Gust
A - D
Rain Rate
A - D
Rain Total
00:00 2.8 0.2 83 1028.9 0.7 SE 1.6 0.0 0.0
00:01 2.8 0.2 83 1028.9 0.7 SE 1.6 0.0 0.0
00:02 2.8 0.2 83 1028.7 0.7 SE 1.6 0.0 0.0
00:04 2.8 0.2 83 1028.7 0.7 SE 1.6 0.0 0.0
00:05 2.8 0.2 83 1028.8 0.7 SE 1.6 0.0 0.0
00:06 2.8 0.2 83 1028.7 0.7 SE 1.6 0.0 0.0
00:07 2.8 0.2 83 1028.7 0.7 SE 1.6 0.0 0.0
00:08 2.7 0.1 83 1028.7 1.6 SE 1.6 0.0 0.0
00:09 2.7 0.1 83 1028.7 1.6 SE 1.6 0.0 0.0
00:10 2.7 0.1 83 1028.7 0.0 SE 1.6 0.0 0.0
00:11 2.7 0.1 83 1028.7 0.7 SE 1.6 0.0 0.0
00:12 2.6 0.0 83 1028.6 0.0 SE 1.6 0.0 0.0
00:13 2.7 0.1 83 1028.6 0.0 SE 1.6 0.0 0.0
00:14 2.6 0.0 83 1028.6 0.0 SE 1.6 0.0 0.0
00:15 2.6 0.0 83 1028.6 0.0 SE 1.6 0.0 0.0
00:16 2.6 0.0 83 1028.5 0.7 SE 1.6 0.0 0.0
00:17 2.6 0.0 83 1028.6 0.7 SE 1.6 0.0 0.0
00:18 2.6 0.0 83 1028.6 0.7 SE 1.6 0.0 0.0
00:19 2.6 0.0 83 1028.5 0.0 SE 1.6 0.0 0.0
00:20 2.6 0.0 83 1028.6 0.7 SE 1.6 0.0 0.0
00:22 2.6 0.2 84 1028.5 0.0 SE 1.6 0.0 0.0
00:23 2.6 0.0 83 1028.5 0.7 SE 1.6 0.0 0.0
00:24 2.5 0.1 84 1028.5 0.7 SE 1.6 0.0 0.0
00:25 2.5 0.1 84 1028.4 0.7 SE 1.6 0.0 0.0
00:26 2.5 0.1 84 1028.7 0.7 SE 1.6 0.0 0.0
00:27 2.5 0.1 84 1028.7 0.7 SE 1.6 0.0 0.0
00:28 2.5 0.1 84 1028.7 0.7 SE 0.7 0.0 0.0
00:30 2.5 0.1 84 1028.5 1.6 SE 1.6 0.0 0.0
00:31 2.5 0.1 84 1028.6 1.6 SE 1.6 0.0 0.0
00:32 2.5 0.1 84 1028.5 1.6 SE 1.6 0.0 0.0
00:33 2.5 0.1 84 1028.5 1.6 SE 1.6 0.0 0.0
00:34 2.5 0.1 84 1028.5 0.7 SE 1.6 0.0 0.0
00:36 2.5 0.1 84 1028.5 0.0 SE 1.6 0.0 0.0
00:37 2.5 0.1 84 1028.5 0.7 SE 1.6 0.0 0.0
00:38 2.5 0.1 84 1028.5 0.7 SE 1.6 0.0 0.0
00:39 2.5 0.1 84 1028.5 0.0 SE 1.6 0.0 0.0
00:40 2.4 0.0 84 1028.4 0.0 SE 1.6 0.0 0.0
00:41 2.4 0.0 84 1028.6 0.0 SE 1.6 0.0 0.0
00:42 2.5 0.1 84 1028.5 0.0 SE 1.6 0.0 0.0
00:43 2.4 0.0 84 1028.5 0.0 SE 0.7 0.0 0.0
00:45 2.4 0.0 84 1028.3 0.0 SE 0.7 0.0 0.0
00:46 2.4 0.0 84 1028.4 0.0 SE 0.7 0.0 0.0
00:47 2.4 0.0 84 1028.4 0.0 SE 0.7 0.0 0.0
00:48 2.4 0.0 84 1028.6 0.0 SE 0.7 0.0 0.0
00:49 2.4 0.0 84 1028.5 0.0 SE 0.0 0.0 0.0
00:50 2.4 0.0 84 1028.4 0.0 SE 0.0 0.0 0.0
00:51 2.4 0.1 85 1028.3 0.0 SE 0.0 0.0 0.0
00:52 2.4 0.0 84 1028.4 0.0 SE 0.0 0.0 0.0
00:53 2.3 0.0 85 1028.3 0.0 SE 0.0 0.0 0.0
00:54 2.3 0.0 85 1028.4 0.0 SE 0.0 0.0 0.0
00:56 2.3 0.0 85 1028.2 0.0 SE 0.0 0.0 0.0
00:57 2.3 0.0 85 1028.4 0.0 SE 0.0 0.0 0.0
00:58 2.3 0.0 85 1028.2 0.0 SE 0.0 0.0 0.0
00:59 2.3 0.0 85 1028.3 0.0 SE 0.0 0.0 0.0
01:00 2.3 0.0 85 1028.3 0.0 SE 0.0 0.0 0.0
01:01 2.3 0.0 85 1028.2 0.0 SE 0.0 0.0 0.0
01:02 2.3 0.0 85 1028.2 0.0 SE 0.0 0.0 0.0
01:03 2.3 0.0 85 1028.3 0.0 SE 0.0 0.0 0.0
01:04 2.3 0.0 85 1028.2 0.0 SE 0.0 0.0 0.0
01:05 2.3 0.0 85 1028.2 0.0 SE 0.0 0.0 0.0
01:07 2.3 0.0 85 1028.2 0.0 SE 0.0 0.0 0.0
01:08 2.2 -0.1 85 1028.3 0.7 SE 0.7 0.0 0.0
01:09 2.2 -0.1 85 1028.2 0.7 SE 0.7 0.0 0.0
01:10 2.1 -0.2 85 1028.4 0.7 SE 0.7 0.0 0.0
01:11 2.1 -0.2 85 1028.2 0.0 SE 0.7 0.0 0.0
01:12 2.1 -0.2 85 1028.2 0.0 SE 0.7 0.0 0.0
01:13 2.1 -0.2 85 1028.3 0.0 SE 0.7 0.0 0.0
01:14 2.1 -0.2 85 1028.2 0.7 SE 0.7 0.0 0.0
01:15 2.1 -0.2 85 1028.2 0.0 SE 0.7 0.0 0.0
01:16 2.1 -0.2 85 1028.2 0.7 SE 0.7 0.0 0.0
01:17 2.1 -0.2 85 1028.2 0.0 SE 0.7 0.0 0.0
01:18 2.1 -0.2 85 1028.2 0.0 SE 0.7 0.0 0.0
01:19 2.1 -0.2 85 1028.3 0.0 SE 0.7 0.0 0.0
01:21 2.1 -0.2 85 1028.3 0.0 SE 0.7 0.0 0.0
01:22 2.0 -0.3 85 1028.1 0.0 SE 0.7 0.0 0.0
01:23 2.0 -0.3 85 1028.1 0.0 SE 0.7 0.0 0.0
01:24 2.0 -0.1 86 1028.1 0.0 SE 0.7 0.0 0.0
01:25 2.0 -0.1 86 1028.1 0.7 SE 0.7 0.0 0.0
01:26 2.0 -0.1 86 1028.2 0.7 SE 0.7 0.0 0.0
01:27 2.0 -0.1 86 1028.0 1.6 SE 1.6 0.0 0.0
01:28 2.0 -0.1 86 1028.0 0.0 SE 1.6 0.0 0.0
01:30 2.0 -0.1 86 1028.0 0.0 SE 1.6 0.0 0.0
01:31 2.0 -0.1 86 1028.1 0.0 SE 1.6 0.0 0.0
01:32 2.0 -0.1 86 1028.1 1.6 SE 1.6 0.0 0.0
01:33 2.0 -0.1 86 1028.0 0.0 SE 1.6 0.0 0.0
01:34 2.0 -0.1 86 1028.1 1.6 SE 1.6 0.0 0.0
01:35 2.0 -0.1 86 1028.0 0.7 SE 1.6 0.0 0.0
01:36 2.0 -0.1 86 1028.1 0.0 SE 1.6 0.0 0.0
01:37 2.0 -0.1 86 1028.2 0.7 SE 1.6 0.0 0.0
01:38 2.0 -0.1 86 1028.1 0.7 SE 1.6 0.0 0.0
01:39 2.0 -0.1 86 1027.9 0.7 SE 1.6 0.0 0.0
01:40 2.0 -0.1 86 1028.1 0.0 SE 1.6 0.0 0.0
01:41 2.0 -0.1 86 1028.1 0.7 SE 1.6 0.0 0.0
01:42 2.0 -0.1 86 1028.1 0.0 SE 1.6 0.0 0.0
01:43 2.0 0.1 87 1028.0 0.0 SE 1.6 0.0 0.0
01:45 2.1 0.2 87 1028.0 0.0 SE 0.7 0.0 0.0
01:46 2.0 -0.1 86 1028.1 0.0 SE 0.7 0.0 0.0
01:47 2.1 0.2 87 1028.0 0.0 SE 0.7 0.0 0.0
01:48 2.1 0.2 87 1028.0 0.0 SE 0.7 0.0 0.0
01:49 2.1 0.2 87 1027.9 0.7 SE 0.7 0.0 0.0
01:50 2.1 0.2 87 1027.9 0.7 SE 0.7 0.0 0.0
01:51 2.1 0.2 87 1028.0 0.0 SE 0.7 0.0 0.0
01:52 2.1 0.2 87 1027.8 0.0 SE 0.7 0.0 0.0
01:53 2.1 0.2 87 1027.9 0.0 SE 0.7 0.0 0.0
01:54 2.1 0.2 87 1027.7 0.0 SE 0.7 0.0 0.0
01:55 2.1 0.2 87 1027.8 0.7 SE 0.7 0.0 0.0
01:56 2.2 0.3 87 1027.8 0.7 SE 0.7 0.0 0.0
01:57 2.2 0.3 87 1027.8 0.7 SE 0.7 0.0 0.0
01:58 2.2 0.3 87 1027.7 1.6 SE 1.6 0.0 0.0
02:00 2.2 0.3 87 1027.7 0.7 SE 1.6 0.0 0.0
02:01 2.2 0.3 87 1027.6 0.7 SE 1.6 0.0 0.0
02:02 2.2 0.3 87 1027.6 0.7 SE 1.6 0.0 0.0
02:03 2.2 0.3 87 1027.7 0.7 SE 1.6 0.0 0.0
02:04 2.2 0.3 87 1027.7 0.7 SE 1.6 0.0 0.0
02:05 2.2 0.3 87 1027.7 0.7 SE 1.6 0.0 0.0
02:06 2.2 0.3 87 1027.7 0.7 SE 1.6 0.0 0.0
02:07 2.2 0.3 87 1027.7 0.7 SE 1.6 0.0 0.0
02:08 2.3 0.4 87 1027.6 0.7 SE 1.6 0.0 0.0
02:09 2.3 0.4 87 1027.5 0.7 SE 0.7 0.0 0.0
02:10 2.3 0.4 87 1027.5 1.6 SE 1.6 0.0 0.0
02:11 2.3 0.4 87 1027.5 1.6 SE 1.6 0.0 0.0
02:12 2.3 0.4 87 1027.5 1.6 SE 1.6 0.0 0.0
02:14 2.3 0.4 87 1027.5 1.6 SE 1.6 0.0 0.0
02:15 2.4 0.5 87 1027.4 2.2 SE 2.2 0.0 0.0
02:16 2.4 0.5 87 1027.5 0.7 SE 2.2 0.0 0.0
02:17 2.4 0.5 87 1027.5 1.6 SE 2.2 0.0 0.0
02:18 2.4 0.5 87 1027.4 1.6 SE 2.2 0.0 0.0
02:19 2.4 0.5 87 1027.4 0.7 SE 2.2 0.0 0.0
02:20 2.4 0.5 87 1027.4 0.0 SE 2.2 0.0 0.0
02:21 2.4 0.5 87 1027.4 0.7 SE 2.2 0.0 0.0
02:22 2.4 0.5 87 1027.4 0.7 SE 2.2 0.0 0.0
02:23 2.5 0.6 87 1027.3 1.6 SE 2.2 0.0 0.0
02:24 2.5 0.6 87 1027.3 0.7 SE 2.2 0.0 0.0
02:25 2.5 0.6 87 1027.2 0.7 SE 1.6 0.0 0.0
02:27 2.5 0.6 87 1027.2 1.6 SE 1.6 0.0 0.0
02:28 2.5 0.6 87 1027.2 1.6 SE 1.6 0.0 0.0
02:29 2.5 0.6 87 1027.2 0.7 SE 1.6 0.0 0.0
02:30 2.5 0.6 87 1027.3 0.7 SE 1.6 0.0 0.0
02:31 2.6 0.7 87 1027.4 0.7 SE 1.6 0.0 0.0
02:32 2.6 0.7 87 1027.2 0.7 SE 1.6 0.0 0.0
02:33 2.6 0.7 87 1027.2 0.0 SE 1.6 0.0 0.0
02:34 2.6 0.7 87 1027.2 0.7 SE 1.6 0.0 0.0
02:35 2.6 0.7 87 1027.2 0.0 SE 1.6 0.0 0.0
02:36 2.6 0.7 87 1027.1 0.0 SE 1.6 0.0 0.0
02:37 2.6 0.7 87 1027.0 0.0 SE 1.6 0.0 0.0
02:38 2.6 0.7 87 1027.2 0.0 SE 0.7 0.0 0.0
02:40 2.6 0.7 87 1027.2 0.0 SE 0.7 0.0 0.0
02:41 2.6 0.7 87 1027.1 0.0 SE 0.7 0.0 0.0
02:42 2.6 0.7 87 1027.1 0.0 SE 0.7 0.0 0.0
02:43 2.6 0.7 87 1027.0 1.6 SE 1.6 0.0 0.0
02:44 2.6 0.7 87 1027.2 1.6 SE 1.6 0.0 0.0
02:45 2.6 0.7 87 1027.0 0.7 SE 1.6 0.0 0.0
02:46 2.6 0.7 87 1027.0 1.6 SE 1.6 0.0 0.0
02:47 2.7 0.8 87 1027.1 1.6 SE 1.6 0.0 0.0
02:48 2.7 0.8 87 1027.1 1.6 SE 2.2 0.0 0.0
02:49 2.7 0.8 87 1027.0 1.6 SE 2.2 0.0 0.0
02:50 2.7 0.8 87 1027.2 2.2 SE 2.2 0.0 0.0
02:51 2.7 0.8 87 1027.2 2.2 SE 2.2 0.0 0.0
02:53 2.7 0.8 87 1027.2 1.6 SE 2.2 0.0 0.0
02:54 2.7 0.8 87 1027.1 1.6 SE 2.2 0.0 0.0
02:55 2.8 0.9 87 1027.1 1.6 SE 2.2 0.0 0.0
02:56 2.8 0.9 87 1027.2 1.6 SE 2.2 0.0 0.0
02:57 2.8 0.9 87 1027.2 1.6 SE 2.2 0.0 0.0
02:58 2.8 0.9 87 1027.0 0.7 SE 2.2 0.0 0.0
02:59 2.8 0.9 87 1027.1 0.7 SE 2.2 0.0 0.0
03:00 2.8 0.9 87 1027.1 2.2 SE 2.2 0.0 0.0
03:01 2.8 0.9 87 1027.3 2.2 SE 2.2 0.0 0.0
03:02 2.8 0.9 87 1026.9 2.2 SE 2.2 0.0 0.0
03:03 2.8 0.9 87 1027.0 2.2 SE 2.2 0.0 0.0
03:05 2.8 0.9 87 1026.9 2.2 SE 2.2 0.0 0.0
03:06 2.8 0.9 87 1027.0 2.2 SE 2.2 0.0 0.0
03:07 2.8 0.9 87 1027.0 2.2 SE 2.2 0.0 0.0
03:08 3.0 1.1 87 1026.9 0.7 SE 2.2 0.0 0.0
03:09 3.0 1.1 87 1026.9 1.6 SE 2.2 0.0 0.0
03:10 3.0 1.1 87 1027.1 0.7 SE 2.2 0.0 0.0
03:11 3.0 1.1 87 1026.9 0.7 SE 2.2 0.0 0.0
03:12 3.0 1.1 87 1026.8 1.6 SE 2.2 0.0 0.0
03:13 3.0 1.1 87 1026.8 1.6 SE 2.2 0.0 0.0
03:14 3.0 1.1 87 1026.7 2.2 SE 2.2 0.0 0.0
03:15 3.0 1.1 87 1026.7 3.1 SE 3.1 0.0 0.0
03:16 3.1 1.2 87 1026.8 1.6 SE 3.1 0.0 0.0
03:17 3.1 1.2 87 1026.8 1.6 SE 3.1 0.0 0.0
03:19 3.1 1.2 87 1026.7 0.7 SE 3.1 0.0 0.0
03:20 3.1 1.2 87 1026.7 0.0 SE 3.1 0.0 0.0
03:21 3.1 1.2 87 1026.9 1.6 SE 3.1 0.0 0.0
03:22 3.1 1.2 87 1026.7 0.7 SE 3.1 0.0 0.0
03:23 3.2 1.2 87 1026.8 1.6 SE 3.1 0.0 0.0
03:24 3.2 1.2 87 1026.7 1.6 SE 3.1 0.0 0.0
03:25 3.2 1.2 87 1026.7 1.6 SE 1.6 0.0 0.0
03:26 3.2 1.2 87 1026.8 1.6 SE 1.6 0.0 0.0
03:27 3.2 1.2 87 1026.7 2.2 SE 2.2 0.0 0.0
03:28 3.3 1.3 87 1026.6 1.6 SE 2.2 0.0 0.0
03:29 3.3 1.3 87 1026.6 1.6 SE 2.2 0.0 0.0
03:30 3.3 1.3 87 1026.5 1.6 SE 2.2 0.0 0.0
03:31 3.3 1.3 87 1026.4 1.6 SE 2.2 0.0 0.0
03:33 3.3 1.3 87 1026.5 0.7 SE 2.2 0.0 0.0
03:34 3.3 1.3 87 1026.5 0.7 SE 2.2 0.0 0.0
03:35 3.3 1.3 87 1026.4 0.7 SE 2.2 0.0 0.0
03:36 3.3 1.3 87 1026.4 0.7 SE 2.2 0.0 0.0
03:37 3.3 1.3 87 1026.3 0.7 SE 2.2 0.0 0.0
03:38 3.4 1.4 87 1026.4 1.6 SE 1.6 0.0 0.0
03:39 3.4 1.4 87 1026.4 0.7 SE 1.6 0.0 0.0
03:40 3.4 1.4 87 1026.4 0.7 SE 1.6 0.0 0.0
03:41 3.4 1.4 87 1026.2 0.0 SE 1.6 0.0 0.0
03:42 3.4 1.4 87 1026.4 0.7 SE 1.6 0.0 0.0
03:43 3.4 1.4 87 1026.3 0.7 SE 1.6 0.0 0.0
03:44 3.5 1.5 87 1026.2 0.7 SE 1.6 0.0 0.0
03:46 3.5 1.5 87 1026.3 0.7 SE 1.6 0.0 0.0
03:47 3.5 1.5 87 1026.3 1.6 SE 1.6 0.0 0.0
03:48 3.5 1.5 87 1026.3 0.7 SE 1.6 0.0 0.0
03:49 3.5 1.5 87 1026.3 0.7 SE 1.6 0.0 0.0
03:50 3.5 1.5 87 1026.3 0.7 SE 1.6 0.0 0.0
03:51 3.5 1.5 87 1026.2 1.6 SE 1.6 0.0 0.0
03:52 3.5 1.5 87 1026.1 1.6 SE 1.6 0.0 0.0
03:53 3.6 1.6 87 1026.2 1.6 SE 1.6 0.0 0.0
03:54 3.6 1.6 87 1026.2 1.6 SE 1.6 0.0 0.0
03:55 3.6 1.6 87 1026.2 1.6 SE 1.6 0.0 0.0
03:57 3.6 1.6 87 1026.0 1.6 SE 1.6 0.0 0.0
03:58 3.6 1.6 87 1026.2 1.6 SE 1.6 0.0 0.0
03:59 3.7 1.7 87 1026.1 0.7 SE 1.6 0.0 0.0
04:00 3.6 1.6 87 1026.2 0.7 SE 1.6 0.0 0.0
04:01 3.6 1.6 87 1026.2 0.7 SE 1.6 0.0 0.0
04:02 3.6 1.6 87 1026.1 0.7 SE 1.6 0.0 0.0
04:03 3.6 1.6 87 1026.2 0.7 SE 1.6 0.0 0.0
04:04 3.6 1.6 87 1026.0 0.7 SE 1.6 0.0 0.0
04:05 3.6 1.6 87 1026.0 0.7 SE 1.6 0.0 0.0
04:06 3.6 1.6 87 1026.1 0.7 SE 1.6 0.0 0.0
04:07 3.6 1.6 87 1026.2 0.7 SE 1.6 0.0 0.0
04:09 3.7 1.7 87 1026.2 0.0 SE 0.7 0.0 0.0
04:10 3.7 1.7 87 1026.2 0.0 SE 0.7 0.0 0.0
04:11 3.7 1.9 88 1026.1 0.7 SE 0.7 0.0 0.0
04:12 3.8 2.0 88 1026.0 0.0 SE 0.7 0.0 0.0
04:13 3.8 1.8 87 1026.3 0.7 SE 0.7 0.0 0.0
04:14 3.8 2.0 88 1026.0 0.7 SE 0.7 0.0 0.0
04:15 3.8 2.0 88 1026.0 0.7 SE 0.7 0.0 0.0
04:17 3.8 2.0 88 1026.0 0.7 SE 0.7 0.0 0.0
04:18 3.8 2.0 88 1026.0 0.7 SE 0.7 0.0 0.0
04:19 3.8 2.0 88 1025.9 0.0 SE 0.7 0.0 0.0
04:20 3.8 2.0 88 1026.0 0.0 SE 0.7 0.0 0.0
04:21 3.8 2.0 88 1025.8 0.7 SE 0.7 0.0 0.0
04:22 3.8 2.0 88 1025.7 0.7 SE 0.7 0.0 0.0
04:23 3.9 1.9 87 1025.7 1.6 SE 1.6 0.0 0.0
04:24 3.9 1.9 87 1025.7 1.6 SE 1.6 0.0 0.0
04:25 3.9 1.9 87 1025.7 1.6 SE 1.6 0.0 0.0
04:26 3.9 1.9 87 1025.7 0.7 SE 1.6 0.0 0.0
04:27 3.9 2.1 88 1025.7 0.7 SE 1.6 0.0 0.0
04:28 3.9 1.9 87 1025.7 1.6 SE 1.6 0.0 0.0
04:30 3.9 1.9 87 1025.6 1.6 SE 1.6 0.0 0.0
04:31 3.9 1.9 87 1025.5 2.2 SE 2.2 0.0 0.0
04:32 3.9 1.9 87 1025.8 2.2 SE 2.2 0.0 0.0
04:33 4.0 2.0 87 1025.6 2.2 SE 2.2 0.0 0.0
04:34 4.0 2.0 87 1025.7 2.2 SE 2.2 0.0 0.0
04:35 4.0 2.0 87 1025.6 3.1 N 3.8 0.0 0.0
04:36 4.0 2.0 87 1025.5 2.2 N 3.8 0.0 0.0
04:37 4.0 2.0 87 1025.5 3.1 N 3.8 0.0 0.0
04:38 4.0 2.0 87 1025.6 2.2 N 3.8 0.0 0.0
04:39 4.0 2.0 87 1025.6 3.1 N 3.8 0.0 0.0
04:40 4.0 2.0 87 1025.6 2.2 N 3.8 0.0 0.0
04:41 4.1 2.1 87 1025.6 1.6 N 3.8 0.0 0.0
04:42 4.0 2.0 87 1025.5 1.6 N 3.8 0.0 0.0
04:43 4.1 2.1 87 1025.5 1.6 N 3.8 0.0 0.0
04:44 4.1 2.1 87 1025.5 1.6 N 3.8 0.0 0.0
04:46 4.1 2.1 87 1025.4 2.2 N 3.1 0.0 0.0
04:47 4.1 2.1 87 1025.4 3.1 N 3.1 0.0 0.0
04:48 4.1 2.1 87 1025.4 3.1 N 3.1 0.0 0.0
04:49 4.1 2.1 87 1025.4 3.1 N 3.1 0.0 0.0
04:50 4.1 2.1 87 1025.4 2.2 N 3.1 0.0 0.0
04:51 4.1 2.1 87 1025.4 1.6 N 3.1 0.0 0.0
04:52 4.1 2.1 87 1025.5 1.6 N 3.1 0.0 0.0
04:53 4.1 2.1 87 1025.5 2.2 N 3.1 0.0 0.0
04:54 4.1 2.1 87 1025.5 1.6 N 3.1 0.0 0.0
04:55 4.1 2.1 87 1025.5 2.2 N 3.1 0.0 0.0
04:56 4.1 2.1 87 1025.4 1.6 N 3.1 0.0 0.0
04:57 4.2 2.2 87 1025.6 4.5 N 4.5 0.0 0.0
04:58 4.1 2.1 87 1025.4 3.8 N 4.5 0.0 0.0
04:59 4.2 2.2 87 1025.4 3.1 N 4.5 0.0 0.0
05:00 4.2 2.2 87 1025.5 1.6 N 4.5 0.0 0.0
05:02 4.2 2.2 87 1025.5 1.6 N 4.5 0.0 0.0
05:03 4.2 2.2 87 1025.6 1.6 N 4.5 0.0 0.0
05:04 4.2 2.2 87 1025.5 1.6 N 4.5 0.0 0.0
05:05 4.2 2.2 87 1025.6 1.6 N 4.5 0.0 0.0
05:06 4.2 2.2 87 1025.5 1.6 N 4.5 0.0 0.0
05:07 4.2 2.2 87 1025.5 1.6 N 4.5 0.0 0.0
05:08 4.3 2.3 87 1025.5 3.1 N 3.8 0.0 0.0
05:09 4.2 2.2 87 1025.5 3.8 N 3.8 0.0 0.0
05:10 4.3 2.3 87 1025.4 3.8 N 3.8 0.0 0.0
05:11 4.3 2.3 87 1025.5 3.1 N 3.8 0.0 0.0
05:12 4.3 2.3 87 1025.4 3.8 N 3.8 0.0 0.0
05:14 4.3 2.3 87 1025.4 4.5 N 4.5 0.0 0.0
05:15 4.3 2.3 87 1025.4 4.5 S 4.5 0.0 0.0
05:16 4.4 2.4 87 1025.5 4.5 SW 4.5 0.0 0.0
05:17 4.4 2.4 87 1025.4 3.8 SW 4.5 0.0 0.0
05:18 4.4 2.4 87 1025.4 4.5 S 4.5 0.0 0.0
05:19 4.4 2.4 87 1025.3 3.8 SW 4.5 0.0 0.0
05:20 4.4 2.4 87 1025.4 4.5 SW 4.5 0.0 0.0
05:21 4.5 2.5 87 1025.4 3.1 S 4.5 0.0 0.0
05:22 4.5 2.5 87 1025.3 4.5 S 4.5 0.0 0.0
05:23 4.5 2.5 87 1025.3 5.4 S 5.4 0.0 0.0
05:24 4.5 2.5 87 1025.3 5.4 SW 5.4 0.0 0.0
05:25 4.5 2.5 87 1025.3 6.0 S 6.0 0.0 0.0
05:27 4.5 2.5 87 1025.4 4.5 S 6.0 0.0 0.0
05:28 4.6 2.6 87 1025.2 4.5 S 6.0 0.0 0.0
05:29 4.6 2.6 87 1025.3 3.8 S 6.0 0.0 0.0
05:30 4.6 2.6 87 1025.2 6.0 WNW 6.0 0.0 0.0
05:31 4.6 2.6 87 1025.2 6.0 S 6.0 0.0 0.0
05:32 4.6 2.6 87 1025.3 5.4 S 6.0 0.0 0.0
05:33 4.6 2.6 87 1025.2 3.8 S 6.0 0.0 0.0
05:34 4.6 2.6 87 1025.2 5.4 SW 6.0 0.0 0.0
05:35 4.7 2.7 87 1025.2 5.4 SW 6.0 0.0 0.0
05:36 4.7 2.7 87 1025.1 6.0 S 6.0 0.0 0.0
05:37 4.7 2.7 87 1025.2 3.8 S 6.0 0.0 0.0
05:39 4.7 2.7 87 1025.1 6.9 S 6.9 0.0 0.0
05:40 4.7 2.7 87 1025.2 3.8 S 6.9 0.0 0.0
05:41 4.7 2.7 87 1025.1 4.5 S 6.9 0.0 0.0
05:42 4.7 2.7 87 1025.1 4.5 SE 6.9 0.0 0.0
05:43 4.7 2.7 87 1024.9 6.0 S 6.9 0.0 0.0
05:44 4.8 2.8 87 1025.1 4.5 S 6.9 0.0 0.0
05:45 4.8 2.7 86 1025.1 2.2 S 6.9 0.0 0.0
05:46 4.8 2.8 87 1025.0 4.5 SW 6.9 0.0 0.0
05:47 4.8 2.8 87 1025.0 3.8 S 6.9 0.0 0.0
05:48 4.8 2.8 87 1024.9 5.4 S 6.9 0.0 0.0
05:49 4.8 2.7 86 1025.0 6.0 S 6.0 0.0 0.0
05:51 4.8 2.7 86 1024.8 5.4 S 6.9 0.0 0.0
05:52 4.8 2.7 86 1024.8 6.0 S 6.9 0.0 0.0
05:53 4.8 2.7 86 1024.9 5.4 S 6.9 0.0 0.0
05:54 4.9 2.8 86 1024.9 6.0 S 6.9 0.0 0.0
05:55 4.9 2.8 86 1024.9 5.4 S 6.9 0.0 0.0
05:56 4.9 2.8 86 1024.9 4.5 S 6.9 0.0 0.0
05:57 4.9 2.8 86 1025.0 4.5 S 6.9 0.0 0.0
05:59 4.9 2.8 86 1024.9 5.4 SW 6.9 0.0 0.0
06:00 5.0 2.9 86 1024.9 9.2 SW 9.2 0.0 0.0
06:01 5.0 2.9 86 1024.9 9.2 SW 9.2 0.0 0.0
06:02 5.0 2.9 86 1024.8 9.2 SW 9.2 0.0 0.0
06:03 5.0 2.9 86 1025.0 9.2 SW 9.2 0.0 0.0
06:04 5.0 2.9 86 1025.0 9.2 SW 9.2 0.0 0.0
06:05 5.0 2.9 86 1024.9 9.2 SW 9.2 0.0 0.0
06:07 5.0 2.9 86 1024.9 6.9 S 9.2 0.0 0.0
06:08 5.0 2.9 86 1024.9 6.0 S 9.2 0.0 0.0
06:09 5.0 2.9 86 1024.8 4.5 S 9.2 0.0 0.0
06:11 5.1 3.0 86 1024.8 13.0 S 13.0 0.0 0.0
06:12 5.1 3.0 86 1024.7 11.4 S 13.0 0.0 0.0
06:13 5.1 3.0 86 1024.7 9.8 SW 13.0 0.0 0.0
06:14 5.1 3.0 86 1024.8 9.2 SW 13.0 0.0 0.0
06:15 5.1 3.0 86 1024.7 8.3 S 13.0 0.0 0.0
06:16 5.2 3.1 86 1024.7 14.5 SW 14.5 0.0 0.0
06:17 5.2 3.1 86 1024.7 12.1 SW 14.5 0.0 0.0
06:19 5.2 2.9 85 1024.7 12.1 S 14.5 0.0 0.0
06:20 5.3 3.0 85 1024.7 12.1 SW 14.5 0.0 0.0
06:21 5.3 3.0 85 1024.7 12.1 S 14.5 0.0 0.0
06:22 5.3 3.0 85 1024.6 9.2 S 14.5 0.0 0.0
06:23 5.3 3.0 85 1024.7 15.2 SW 15.2 0.0 0.0
06:24 5.4 2.9 84 1024.6 12.1 SW 15.2 0.0 0.0
06:25 5.4 2.9 84 1024.5 11.4 S 15.2 0.0 0.0
06:26 5.4 2.9 84 1024.5 13.0 S 15.2 0.0 0.0
06:28 5.5 3.0 84 1024.5 14.5 SW 15.2 0.0 0.0
06:29 5.4 2.9 84 1024.6 13.0 S 15.2 0.0 0.0
06:30 5.5 3.0 84 1024.6 9.8 SW 15.2 0.0 0.0
06:31 5.5 3.0 84 1024.5 9.8 S 15.2 0.0 0.0
06:32 5.5 2.8 83 1024.5 11.4 S 15.2 0.0 0.0
06:33 5.5 2.8 83 1024.5 9.8 S 15.2 0.0 0.0
06:35 5.5 2.8 83 1024.5 12.1 S 14.5 0.0 0.0
06:36 5.5 2.8 83 1024.4 9.8 SW 14.5 0.0 0.0
06:37 5.5 2.8 83 1024.5 9.2 S 14.5 0.0 0.0
06:38 5.5 2.8 83 1024.5 9.2 SW 14.5 0.0 0.0
06:39 5.5 2.8 83 1024.5 10.7 S 13.0 0.0 0.0
06:40 5.5 2.8 83 1024.5 7.6 S 13.0 0.0 0.0
06:41 5.5 2.8 83 1024.5 9.2 S 13.0 0.0 0.0
06:42 5.5 2.8 83 1024.6 9.8 S 12.1 0.0 0.0
06:44 5.5 2.8 83 1024.5 10.7 S 12.1 0.0 0.0
06:45 5.5 2.7 82 1024.4 9.2 SW 12.1 0.0 0.0
06:46 5.5 2.8 83 1024.4 6.9 S 10.7 0.0 0.0
06:47 5.5 2.7 82 1024.2 6.9 S 10.7 0.0 0.0
06:48 5.5 2.7 82 1024.4 6.0 SW 10.7 0.0 0.0
06:49 5.5 2.7 82 1024.2 7.6 S 10.7 0.0 0.0
06:50 5.5 2.7 82 1024.4 7.6 SE 10.7 0.0 0.0
06:51 5.5 2.7 82 1024.4 6.9 S 10.7 0.0 0.0
06:52 5.5 2.7 82 1024.3 5.4 S 10.7 0.0 0.0
06:53 5.5 2.7 82 1024.2 6.9 SW 10.7 0.0 0.0
06:54 5.5 2.7 82 1024.2 6.0 S 10.7 0.0 0.0
06:56 5.5 2.7 82 1024.1 3.8 S 8.3 0.0 0.0
06:57 5.5 2.7 82 1024.0 6.9 S 8.3 0.0 0.0
06:58 5.5 2.7 82 1024.1 6.0 SW 8.3 0.0 0.0
06:59 5.5 2.7 82 1024.2 5.4 SW 8.3 0.0 0.0
07:00 5.4 2.6 82 1024.2 6.9 S 8.3 0.0 0.0
07:01 5.4 2.6 82 1024.2 6.9 S 6.9 0.0 0.0
07:02 5.4 2.6 82 1024.1 6.9 S 6.9 0.0 0.0
07:03 5.4 2.6 82 1024.1 6.9 S 6.9 0.0 0.0
07:04 5.4 2.6 82 1024.2 6.9 S 6.9 0.0 0.0
07:06 5.4 2.6 82 1024.2 4.5 S 6.9 0.0 0.0
07:07 5.5 2.7 82 1024.0 4.5 S 6.9 0.0 0.0
07:08 5.4 2.6 82 1024.1 4.5 S 6.9 0.0 0.0
07:09 5.4 2.6 82 1024.0 4.5 S 6.9 0.0 0.0
07:10 5.4 2.6 82 1024.0 4.5 S 6.9 0.0 0.0
07:11 5.4 2.6 82 1024.0 6.0 SW 6.9 0.0 0.0
07:12 5.4 2.6 82 1024.0 4.5 S 6.9 0.0 0.0
07:14 5.4 2.6 82 1023.9 5.4 S 6.9 0.0 0.0
07:15 5.4 2.6 82 1024.1 5.4 S 6.9 0.0 0.0
07:16 5.4 2.6 82 1024.1 4.5 S 6.0 0.0 0.0
07:17 5.4 2.6 82 1024.0 3.8 SW 6.0 0.0 0.0
07:18 5.4 2.6 82 1024.0 4.5 S 6.0 0.0 0.0
07:19 5.4 2.6 82 1024.0 3.8 SW 6.0 0.0 0.0
07:20 5.4 2.6 82 1024.0 4.5 SW 6.0 0.0 0.0
07:21 5.4 2.6 82 1023.9 5.4 W 6.0 0.0 0.0
07:22 5.4 2.6 82 1023.9 6.0 S 6.0 0.0 0.0
07:24 5.4 2.6 82 1023.9 5.4 S 6.9 0.0 0.0
07:25 5.4 2.6 82 1024.0 4.5 SW 6.9 0.0 0.0
07:26 5.4 2.6 82 1024.0 8.3 WNW 8.3 0.0 0.0
07:27 5.4 2.6 82 1024.0 7.6 WNW 8.3 0.0 0.0
07:28 5.4 2.6 82 1023.8 10.7 S 10.7 0.0 0.0
07:29 5.4 2.6 82 1023.8 7.6 S 10.7 0.0 0.0
07:31 5.5 2.7 82 1024.0 9.8 SW 10.7 0.0 0.0
07:32 5.5 2.7 82 1023.8 13.0 SW 13.0 0.0 0.0
07:33 5.5 2.7 82 1023.9 9.8 WNW 13.0 0.0 0.0
07:34 5.5 2.7 82 1023.7 9.8 S 13.0 0.0 0.0
07:36 5.5 2.7 82 1023.9 9.8 S 13.0 0.0 0.0
07:37 5.6 2.8 82 1023.8 6.9 S 13.0 0.0 0.0
07:38 5.6 2.8 82 1023.7 9.8 SW 13.0 0.0 0.0
07:39 5.6 2.8 82 1023.9 9.8 NW 13.0 0.0 0.0
07:41 5.6 2.8 82 1023.9 12.1 W 13.0 0.0 0.0
07:42 5.6 2.8 82 1023.8 9.8 S 12.1 0.0 0.0
07:43 5.7 2.9 82 1023.7 11.4 S 12.1 0.0 0.0
07:44 5.7 2.9 82 1023.8 7.6 SW 12.1 0.0 0.0
07:46 5.7 2.9 82 1023.8 10.7 S 12.1 0.0 0.0
07:47 5.7 2.9 82 1023.7 9.2 S 12.1 0.0 0.0
07:48 5.7 2.9 82 1023.7 9.2 SW 12.1 0.0 0.0
07:49 5.7 2.9 82 1023.7 11.4 SW 12.1 0.0 0.0
07:50 5.8 3.0 82 1023.7 8.3 S 12.1 0.0 0.0
07:52 5.8 3.0 82 1023.7 9.8 S 11.4 0.0 0.0
07:53 5.8 2.8 81 1023.7 10.7 S 11.4 0.0 0.0
07:54 5.8 3.0 82 1023.8 9.8 N 11.4 0.0 0.0
07:55 5.8 3.0 82 1023.8 8.3 S 11.4 0.0 0.0
07:57 5.9 2.9 81 1023.8 9.2 S 11.4 0.0 0.0
07:58 5.9 3.1 82 1023.7 6.0 SW 11.4 0.0 0.0
07:59 5.9 3.1 82 1023.8 8.3 S 11.4 0.0 0.0
08:00 5.9 2.9 81 1023.7 10.7 S 10.7 0.0 0.0
08:02 5.9 2.9 81 1023.8 14.5 SW 14.5 0.0 0.0
08:03 5.9 2.9 81 1023.8 9.8 S 14.5 0.0 0.0
08:04 5.9 2.9 81 1023.7 9.8 S 14.5 0.0 0.0
08:05 5.9 2.9 81 1023.7 10.7 SW 14.5 0.0 0.0
08:06 6.0 3.0 81 1023.7 12.1 S 14.5 0.0 0.0
08:07 6.1 3.1 81 1023.8 14.5 S 14.5 0.0 0.0
08:09 6.0 3.0 81 1023.8 9.2 S 14.5 0.0 0.0
08:10 6.1 3.1 81 1023.7 9.2 S 14.5 0.0 0.0
08:11 6.1 3.1 81 1023.7 10.7 SW 14.5 0.0 0.0
08:12 6.0 3.0 81 1023.7 9.2 S 14.5 0.0 0.0
08:13 6.0 3.2 82 1023.7 12.1 SW 14.5 0.0 0.0
08:14 6.1 3.1 81 1023.7 13.0 SW 14.5 0.0 0.0
08:15 6.1 3.1 81 1023.8 10.7 S 14.5 0.0 0.0
08:16 6.0 3.0 81 1023.7 9.8 SW 14.5 0.0 0.0
08:18 6.1 3.1 81 1023.8 9.2 SW 13.0 0.0 0.0
08:19 6.1 3.1 81 1023.6 13.6 SW 13.6 0.0 0.0
08:20 6.1 3.1 81 1023.7 9.8 SE 13.6 0.0 0.0
08:21 6.1 3.1 81 1023.7 9.8 S 13.6 0.0 0.0
08:22 6.1 3.1 81 1023.7 9.2 SW 13.6 0.0 0.0
08:23 6.1 3.1 81 1023.8 13.6 SW 13.6 0.0 0.0
08:24 6.1 3.1 81 1023.7 12.1 S 13.6 0.0 0.0
08:25 6.1 3.1 81 1023.5 9.2 S 13.6 0.0 0.0
08:26 6.1 3.1 81 1023.6 9.8 W 13.6 0.0 0.0
08:27 6.1 3.1 81 1023.6 8.3 SW 13.6 0.0 0.0
08:28 6.1 3.1 81 1023.8 9.2 W 13.6 0.0 0.0
08:29 6.2 3.2 81 1023.7 7.6 NNE 13.6 0.0 0.0
08:30 6.2 3.2 81 1023.7 8.3 NE 13.6 0.0 0.0
08:31 6.2 3.2 81 1023.7 7.6 SE 13.6 0.0 0.0
08:32 6.2 3.2 81 1023.6 6.9 SE 13.6 0.0 0.0
08:33 6.2 3.2 81 1023.6 10.7 N 12.1 0.0 0.0
08:34 6.2 3.2 81 1023.6 9.8 S 11.4 0.0 0.0
08:36 6.2 3.2 81 1023.6 8.3 S 10.7 0.0 0.0
08:37 6.2 3.2 81 1023.5 10.7 SE 10.7 0.0 0.0
08:38 6.2 3.2 81 1023.6 11.4 S 11.4 0.0 0.0
08:39 6.2 3.2 81 1023.5 11.4 SW 11.4 0.0 0.0
08:40 6.2 3.2 81 1023.5 10.7 S 11.4 0.0 0.0
08:41 6.2 3.2 81 1023.6 9.8 S 11.4 0.0 0.0
08:42 6.2 3.2 81 1023.6 9.2 S 11.4 0.0 0.0
08:43 6.2 3.2 81 1023.5 13.6 W 14.5 0.0 0.0
08:44 6.2 3.2 81 1023.6 8.3 W 14.5 0.0 0.0
08:45 6.2 3.2 81 1023.6 8.3 W 14.5 0.0 0.0
08:46 6.2 3.2 81 1023.3 14.5 S 14.5 0.0 0.0
08:47 6.2 3.0 80 1023.4 12.1 W 16.8 0.0 0.0
08:48 6.3 3.1 80 1023.4 11.4 SW 16.8 0.0 0.0
08:49 6.2 3.0 80 1023.4 12.1 S 16.8 0.0 0.0
08:51 6.3 3.1 80 1023.4 7.6 S 16.8 0.0 0.0
08:52 6.3 3.1 80 1023.3 10.7 SW 16.8 0.0 0.0
08:53 6.3 3.1 80 1023.3 12.1 S 16.8 0.0 0.0
08:54 6.3 3.1 80 1023.3 13.0 S 16.8 0.0 0.0
08:55 6.3 3.1 80 1023.2 12.1 S 16.8 0.0 0.0
08:56 6.3 3.1 80 1023.2 10.7 SW 16.8 0.0 0.0
08:57 6.3 3.1 80 1023.3 12.1 S 13.0 0.0 0.0
08:58 6.3 3.1 80 1023.4 11.4 S 13.0 0.0 0.0
08:59 6.3 3.1 80 1023.3 13.6 S 13.6 0.0 0.0
09:00 6.3 3.1 80 1023.3 10.7 NE 13.6 0.0 0.0
09:01 6.3 3.1 80 1023.2 10.7 NE 13.6 0.0 0.0
09:03 6.3 3.1 80 1023.4 10.7 NE 13.6 0.0 0.0
09:04 6.3 3.1 80 1023.3 10.7 NE 13.6 0.0 0.0
09:05 6.3 3.1 80 1023.3 10.7 NE 13.6 0.0 0.0
09:06 6.4 3.2 80 1023.2 12.1 S 14.5 0.0 0.0
09:07 6.4 3.2 80 1023.3 12.1 S 14.5 0.0 0.0
09:08 6.4 3.2 80 1023.2 10.7 S 14.5 0.0 0.0
09:09 6.4 3.2 80 1023.2 10.7 S 14.5 0.0 0.0
09:10 6.4 3.2 80 1023.2 11.4 S 14.5 0.0 0.0
09:11 6.4 3.2 80 1023.2 13.0 S 14.5 0.0 0.0
09:13 6.4 3.2 80 1023.2 13.6 NNW 14.5 0.0 0.0
09:14 6.4 3.2 80 1023.2 12.1 SW 14.5 0.0 0.0
09:15 6.4 3.2 80 1023.1 10.7 SW 14.5 0.0 0.0
09:16 6.4 3.2 80 1023.1 13.0 S 13.6 0.0 0.0
09:17 6.5 3.3 80 1023.1 9.2 SW 13.6 0.0 0.0
09:18 6.5 3.3 80 1023.1 9.8 S 13.6 0.0 0.0
09:19 6.4 3.2 80 1023.1 10.7 S 13.6 0.0 0.0
09:20 6.5 3.3 80 1023.2 10.7 S 13.6 0.0 0.0
09:21 6.5 3.3 80 1023.0 10.7 S 13.6 0.0 0.0
09:23 6.5 3.1 79 1023.1 6.9 S 13.6 0.0 0.0
09:24 6.5 3.3 80 1023.2 9.2 SE 13.0 0.0 0.0
09:25 6.5 3.3 80 1023.2 13.6 SW 13.6 0.0 0.0
09:26 6.5 3.3 80 1023.1 15.9 SW 15.9 0.0 0.0
09:27 6.5 3.3 80 1023.0 12.1 S 15.9 0.0 0.0
09:28 6.5 3.3 80 1023.1 12.1 S 15.9 0.0 0.0
09:29 6.5 3.3 80 1023.0 9.8 SE 15.9 0.0 0.0
09:30 6.5 3.1 79 1023.0 11.4 S 15.9 0.0 0.0
09:31 6.5 3.1 79 1023.0 13.6 SW 15.9 0.0 0.0
09:32 6.6 3.2 79 1022.9 9.2 SW 15.9 0.0 0.0
09:34 6.6 3.4 80 1023.0 12.1 SW 15.9 0.0 0.0
09:35 6.6 3.4 80 1022.9 11.4 SW 15.9 0.0 0.0
09:36 6.6 3.2 79 1022.9 12.1 S 15.9 0.0 0.0
09:37 6.6 3.2 79 1022.9 9.8 S 13.6 0.0 0.0
09:38 6.6 3.2 79 1022.9 11.4 SE 13.6 0.0 0.0
09:39 6.6 3.2 79 1022.8 9.2 S 14.5 0.0 0.0
09:40 6.6 3.2 79 1022.8 9.2 S 14.5 0.0 0.0
09:41 6.6 3.2 79 1022.8 13.0 S 14.5 0.0 0.0
09:42 6.6 3.2 79 1022.8 13.0 SW 14.5 0.0 0.0
09:43 6.6 3.2 79 1022.7 9.2 S 14.5 0.0 0.0
09:44 6.6 3.2 79 1022.8 10.7 S 14.5 0.0 0.0
09:45 6.6 3.2 79 1022.8 8.3 S 14.5 0.0 0.0
09:46 6.6 3.2 79 1022.7 10.7 SW 14.5 0.0 0.0
09:47 6.6 3.2 79 1022.7 15.2 S 15.2 0.0 0.0
09:48 6.6 3.2 79 1022.7 9.2 SW 15.2 0.0 0.0
09:49 6.6 3.2 79 1022.7 9.2 SW 15.2 0.0 0.0
09:50 6.6 3.2 79 1022.7 12.1 S 15.2 0.0 0.0
09:51 6.6 3.2 79 1022.8 8.3 SW 15.2 0.0 0.0
09:52 6.7 3.5 80 1022.8 9.2 SW 15.2 0.0 0.0
09:53 6.7 3.3 79 1022.7 9.2 S 15.2 0.0 0.0
09:54 6.7 3.5 80 1022.7 8.3 S 15.2 0.0 0.0
09:55 6.7 3.5 80 1022.7 9.2 S 15.2 0.0 0.0
09:56 6.7 3.5 80 1022.7 7.6 S 15.2 0.0 0.0
09:57 6.7 3.5 80 1022.8 12.1 S 15.2 0.0 0.0
09:59 6.7 3.5 80 1022.7 9.8 S 12.1 0.0 0.0
10:00 6.7 3.5 80 1022.7 8.3 SW 12.1 0.0 0.0
10:01 6.7 3.5 80 1022.7 9.8 S 12.1 0.0 0.0
10:02 6.7 3.5 80 1022.7 9.8 S 12.1 0.0 0.0
10:03 6.7 3.5 80 1022.7 9.8 S 12.1 0.0 0.0
10:04 6.7 3.5 80 1022.7 9.8 S 12.1 0.0 0.0
10:05 6.7 3.5 80 1022.5 9.8 S 12.1 0.0 0.0
10:06 6.8 3.6 80 1022.6 11.4 SW 12.1 0.0 0.0
10:07 6.8 3.6 80 1022.6 14.5 S 14.5 0.0 0.0
10:08 6.8 3.6 80 1022.5 13.6 S 14.5 0.0 0.0
10:09 6.8 3.4 79 1022.6 12.1 S 14.5 0.0 0.0
10:11 6.8 3.4 79 1022.5 13.0 S 14.5 0.0 0.0
10:12 6.8 3.4 79 1022.6 10.7 SE 14.5 0.0 0.0
10:13 6.8 3.4 79 1022.3 13.0 SW 14.5 0.0 0.0
10:14 6.8 3.4 79 1022.4 13.0 S 14.5 0.0 0.0
10:15 6.9 3.5 79 1022.3 12.1 S 14.5 0.0 0.0
10:16 6.9 3.5 79 1022.4 15.2 SE 15.2 0.0 0.0
10:17 6.9 3.5 79 1022.4 13.6 S 15.2 0.0 0.0
10:18 6.9 3.5 79 1022.3 11.4 S 15.2 0.0 0.0
10:19 6.9 3.3 78 1022.2 11.4 S 15.2 0.0 0.0
10:20 6.9 3.3 78 1022.3 14.5 S 15.2 0.0 0.0
10:21 6.9 3.3 78 1022.1 13.0 S 16.8 0.0 0.0
10:22 6.9 3.3 78 1022.2 14.5 S 16.8 0.0 0.0
10:23 7.0 3.4 78 1022.0 9.2 S 16.8 0.0 0.0
10:24 7.0 3.4 78 1022.1 11.4 SW 16.8 0.0 0.0
10:25 7.0 3.4 78 1022.0 9.8 S 16.8 0.0 0.0
10:26 7.0 3.4 78 1022.1 12.1 S 16.8 0.0 0.0
10:27 7.0 3.4 78 1022.0 14.5 S 16.8 0.0 0.0
10:28 7.0 3.4 78 1022.0 11.4 S 16.8 0.0 0.0
10:29 7.0 3.4 78 1022.0 13.0 S 16.8 0.0 0.0
10:30 7.0 3.4 78 1022.1 12.1 S 16.8 0.0 0.0
10:31 7.0 3.4 78 1022.1 15.9 S 16.8 0.0 0.0
10:32 7.0 3.4 78 1022.1 15.2 S 16.8 0.0 0.0
10:33 7.0 3.4 78 1022.0 14.5 S 16.8 0.0 0.0
10:34 7.0 3.4 78 1022.1 12.1 S 16.8 0.0 0.0
10:35 7.0 3.4 78 1022.0 15.2 SE 16.8 0.0 0.0
10:36 7.0 3.4 78 1021.9 13.6 S 16.8 0.0 0.0
10:38 7.0 3.4 78 1021.9 12.1 S 15.9 0.0 0.0
10:39 7.0 3.4 78 1021.9 11.4 S 15.9 0.0 0.0
10:40 7.0 3.4 78 1022.0 13.0 SW 15.9 0.0 0.0
10:41 7.0 3.4 78 1021.9 8.3 SW 15.9 0.0 0.0
10:42 7.0 3.4 78 1021.9 13.0 S 15.2 0.0 0.0
10:43 7.0 3.4 78 1021.9 8.3 S 15.2 0.0 0.0
10:44 7.0 3.4 78 1021.9 7.6 W 15.2 0.0 0.0
10:45 7.0 3.4 78 1021.9 10.7 S 15.2 0.0 0.0
10:46 7.0 3.6 79 1021.9 13.0 SW 15.9 0.0 0.0
10:47 7.0 3.6 79 1021.8 15.2 S 15.9 0.0 0.0
10:48 7.1 3.5 78 1021.9 16.8 S 16.8 0.0 0.0
10:49 7.0 3.4 78 1021.9 15.9 S 18.3 0.0 0.0
10:50 7.1 3.5 78 1022.0 14.5 S 18.3 0.0 0.0
10:51 7.1 3.5 78 1021.7 15.9 W 18.3 0.0 0.0
10:52 7.1 3.5 78 1022.0 13.6 SE 18.3 0.0 0.0
10:53 7.1 3.7 79 1021.8 13.6 SW 18.3 0.0 0.0
10:54 7.1 3.7 79 1021.7 13.0 S 18.3 0.0 0.0
10:55 7.1 3.7 79 1021.7 15.9 S 18.3 0.0 0.0
10:56 7.1 3.7 79 1021.8 19.7 SW 19.7 0.0 0.0
10:57 7.1 3.7 79 1021.7 16.8 S 19.7 0.0 0.0
10:58 7.1 3.7 79 1021.6 16.8 WNW 19.7 0.0 0.0
10:59 7.1 3.7 79 1021.7 17.4 SW 19.7 0.0 0.0
11:01 7.1 3.7 79 1021.6 12.1 SW 19.7 0.0 0.0
11:02 7.1 3.7 79 1021.6 15.2 S 19.7 0.0 0.0
11:03 7.2 3.8 79 1021.7 13.0 S 19.7 0.0 0.0
11:04 7.1 3.7 79 1021.5 17.4 S 19.7 0.0 0.0
11:05 7.2 3.8 79 1021.5 13.6 SE 19.7 0.0 0.0
11:06 7.3 3.9 79 1021.5 13.6 SW 19.7 0.0 0.0
11:07 7.3 3.9 79 1021.3 17.4 S 19.0 0.0 0.0
11:08 7.3 3.9 79 1021.2 16.8 W 19.0 0.0 0.0
11:09 7.3 3.9 79 1021.3 16.8 S 19.0 0.0 0.0
11:10 7.3 3.9 79 1021.5 16.8 S 17.4 0.0 0.0
11:11 7.3 3.9 79 1021.5 15.2 S 17.4 0.0 0.0
11:12 7.3 3.9 79 1021.5 9.8 S 17.4 0.0 0.0
11:13 7.3 3.9 79 1021.4 15.9 S 17.4 0.0 0.0
11:14 7.3 3.9 79 1021.3 16.8 SE 17.4 0.0 0.0
11:15 7.3 3.9 79 1021.4 15.9 S 17.4 0.0 0.0
11:16 7.3 3.9 79 1021.3 19.0 SW 19.0 0.0 0.0
11:17 7.3 3.9 79 1021.3 14.5 N 19.0 0.0 0.0
11:18 7.3 3.9 79 1021.3 16.8 S 19.0 0.0 0.0
11:19 7.3 3.9 79 1021.1 13.0 S 19.0 0.0 0.0
11:20 7.3 3.9 79 1021.3 10.7 W 19.0 0.0 0.0
11:21 7.3 3.9 79 1021.3 13.6 S 19.0 0.0 0.0
11:22 7.3 3.9 79 1021.2 19.7 S 19.7 0.0 0.0
11:23 7.3 3.9 79 1021.2 18.3 S 19.7 0.0 0.0
11:24 7.3 3.9 79 1021.2 15.2 S 19.7 0.0 0.0
11:25 7.3 3.7 78 1021.2 15.2 S 19.7 0.0 0.0
11:26 7.3 3.7 78 1021.1 19.7 SE 19.7 0.0 0.0
11:27 7.3 3.9 79 1021.1 13.6 S 19.7 0.0 0.0
11:28 7.3 3.9 79 1021.1 14.5 S 19.7 0.0 0.0
11:29 7.3 3.9 79 1021.2 13.0 S 19.7 0.0 0.0
11:30 7.3 3.9 79 1021.1 11.4 S 19.7 0.0 0.0
11:31 7.3 3.9 79 1021.1 16.8 S 19.7 0.0 0.0
11:32 7.4 4.0 79 1021.0 15.9 S 19.7 0.0 0.0
11:33 7.3 3.9 79 1021.1 15.2 S 19.7 0.0 0.0
11:34 7.4 4.0 79 1021.0 13.6 SE 19.7 0.0 0.0
11:35 7.4 4.0 79 1021.0 13.6 S 19.7 0.0 0.0
11:36 7.4 4.0 79 1020.9 15.9 S 16.8 0.0 0.0
11:37 7.4 4.0 79 1021.0 12.1 SE 16.8 0.0 0.0
11:38 7.4 4.0 79 1020.9 15.9 S 16.8 0.0 0.0
11:39 7.4 4.0 79 1020.9 19.0 S 19.0 0.0 0.0
11:40 7.4 4.0 79 1020.7 16.8 SW 19.0 0.0 0.0
11:41 7.4 4.0 79 1020.8 12.1 S 19.0 0.0 0.0
11:42 7.5 4.1 79 1020.7 12.1 SW 19.0 0.0 0.0
11:43 7.5 4.1 79 1020.6 13.6 S 19.0 0.0 0.0
11:44 7.5 4.1 79 1020.7 15.2 SW 19.0 0.0 0.0
11:45 7.5 4.1 79 1020.7 13.6 S 19.0 0.0 0.0
11:46 7.5 4.1 79 1020.7 15.9 S 19.0 0.0 0.0
11:47 7.5 4.1 79 1020.7 19.7 S 19.7 0.0 0.0
11:48 7.5 4.1 79 1020.6 17.4 S 19.7 0.0 0.0
11:49 7.5 4.1 79 1020.6 12.1 S 19.7 0.0 0.0
11:50 7.5 4.1 79 1020.7 18.3 S 19.7 0.0 0.0
11:51 7.6 4.2 79 1020.6 14.5 SE 19.7 0.0 0.0
11:52 7.6 4.2 79 1020.6 13.6 S 19.7 0.0 0.0
11:54 7.6 4.2 79 1020.6 16.8 SW 19.7 0.0 0.0
11:55 7.6 4.2 79 1020.6 18.3 S 19.7 0.0 0.0
11:56 7.6 4.2 79 1020.4 15.9 SE 19.7 0.0 0.0
11:57 7.6 4.2 79 1020.4 15.2 S 19.7 0.0 0.0
11:58 7.6 4.2 79 1020.7 17.4 S 19.0 0.0 0.0
11:59 7.7 4.3 79 1020.6 17.4 SE 19.0 0.0 0.0
12:00 7.7 4.3 79 1020.5 18.3 SW 19.0 0.0 0.0
12:01 7.7 4.1 78 1020.5 17.4 S 19.0 0.0 0.0
12:02 7.7 4.1 78 1020.3 15.9 S 19.0 0.0 0.0
12:03 7.7 4.1 78 1020.5 12.1 S 19.0 0.0 0.0
12:04 7.7 4.1 78 1020.4 20.6 S 20.6 0.0 0.0
12:05 7.7 4.3 79 1020.4 15.2 S 20.6 0.0 0.0
12:06 7.7 4.3 79 1020.4 19.7 S 20.6 0.0 0.0
12:07 7.7 4.3 79 1020.4 12.1 S 20.6 0.0 0.0
12:08 7.7 4.3 79 1020.2 15.2 S 20.6 0.0 0.0
12:09 7.7 4.3 79 1020.2 15.2 SE 20.6 0.0 0.0
12:11 7.7 4.3 79 1020.3 12.1 SE 20.6 0.0 0.0
12:12 7.7 4.3 79 1020.1 17.4 S 20.6 0.0 0.0
12:13 7.7 4.3 79 1020.2 16.8 S 20.6 0.0 0.0
12:14 7.7 4.3 79 1020.2 12.1 S 19.7 0.0 0.0
12:15 7.7 4.3 79 1020.0 17.4 SE 19.7 0.0 0.0
12:16 7.7 4.3 79 1020.2 14.5 S 19.7 0.0 0.0
12:17 7.6 4.2 79 1020.1 19.0 S 19.0 0.0 0.0
12:18 7.6 4.2 79 1020.1 19.0 S 19.0 0.0 0.0
12:19 7.6 4.2 79 1020.1 16.8 S 19.0 0.0 0.0
12:20 7.6 4.2 79 1020.1 17.4 S 19.0 0.0 0.0
12:21 7.5 4.1 79 1020.0 14.5 S 19.0 0.0 0.0
12:22 7.5 3.9 78 1020.1 18.3 S 19.0 0.0 0.0
12:23 7.5 3.9 78 1020.1 15.2 SE 19.0 0.0 0.0
12:24 7.5 4.1 79 1019.9 11.4 S 19.0 0.0 0.0
12:25 7.5 4.1 79 1020.0 18.3 SE 19.0 0.0 0.0
12:26 7.5 4.1 79 1019.9 18.3 N 19.0 0.0 0.0
12:27 7.5 4.1 79 1019.8 15.2 SW 19.0 0.0 0.0
12:28 7.4 4.0 79 1020.0 16.8 S 19.0 0.0 0.0
12:29 7.4 4.0 79 1020.0 13.0 SW 18.3 0.0 0.0
12:30 7.4 4.0 79 1020.0 12.1 S 18.3 0.0 0.0
12:31 7.4 4.0 79 1019.9 13.6 S 18.3 0.0 0.0
12:32 7.4 4.0 79 1020.0 16.8 S 18.3 0.0 0.0
12:33 7.4 4.0 79 1019.8 16.8 S 18.3 0.0 0.0
12:34 7.4 4.2 80 1019.8 18.3 S 18.3 0.0 0.0
12:35 7.4 4.2 80 1019.8 14.5 SE 18.3 0.0 0.0
12:36 7.4 4.2 80 1019.7 15.9 SW 18.3 0.0 0.0
12:37 7.3 4.1 80 1019.9 15.2 S 18.3 0.0 0.0
12:38 7.4 4.2 80 1019.7 17.4 S 18.3 0.0 0.0
12:39 7.4 4.2 80 1019.7 21.3 S 21.3 0.0 0.0
12:40 7.4 4.4 81 1019.7 15.2 S 21.3 0.0 0.0
12:41 7.4 4.4 81 1019.7 16.8 S 21.3 0.0 0.0
12:42 7.4 4.4 81 1019.7 15.9 S 21.3 0.0 0.0
12:43 7.5 4.5 81 1019.6 19.7 S 21.3 0.0 0.0
12:44 7.6 4.6 81 1019.6 11.4 SW 21.3 0.0 0.0
12:45 7.6 4.6 81 1019.6 17.4 S 21.3 0.0 0.0
12:46 7.6 4.7 82 1019.6 17.4 WNW 21.3 0.0 0.0
12:47 7.7 4.8 82 1019.6 19.0 S 21.3 0.0 0.0
12:48 7.8 4.9 82 1019.6 19.0 S 21.3 0.0 0.0
12:49 7.8 4.9 82 1019.6 18.3 SW 19.7 0.0 0.0
12:50 7.9 5.0 82 1019.6 15.2 S 19.7 0.0 0.0
12:51 8.0 5.1 82 1019.4 19.7 S 19.7 0.0 0.0
12:52 8.0 5.1 82 1019.5 21.3 W 21.3 0.0 0.0
12:53 8.0 5.1 82 1019.4 13.0 S 21.3 0.0 0.0
12:54 8.1 5.2 82 1019.4 18.3 S 21.3 0.0 0.0
12:55 8.2 5.3 82 1019.5 19.0 NW 21.3 0.0 0.0
12:56 8.2 5.1 81 1019.5 19.7 S 21.3 0.0 0.0
12:57 8.2 5.1 81 1019.3 15.2 S 21.3 0.0 0.0
12:58 8.2 5.1 81 1019.4 18.3 S 21.3 0.0 0.0
12:59 8.3 5.2 81 1019.3 15.9 S 21.3 0.0 0.0
13:00 8.2 5.1 81 1019.2 15.9 SW 21.3 0.0 0.0
13:01 8.2 5.1 81 1019.3 15.9 SW 21.3 0.0 0.0
13:02 8.3 5.2 81 1019.3 21.3 S 21.3 0.0 0.0
13:03 8.3 5.2 81 1019.3 22.8 SE 22.8 0.0 0.0
13:04 8.3 5.2 81 1019.4 22.1 S 22.8 0.0 0.0
13:05 8.2 5.1 81 1019.2 21.3 SE 22.8 0.0 0.0
13:07 8.2 5.0 80 1019.2 16.8 S 22.8 0.0 0.0
13:08 8.2 5.1 81 1019.0 16.8 SW 22.8 0.0 0.0
13:09 8.2 5.1 81 1019.1 15.2 S 22.8 0.0 0.0
13:10 8.2 5.1 81 1019.1 14.5 S 22.8 0.0 0.0
13:11 8.2 5.1 81 1019.2 16.8 S 22.8 0.0 0.0
13:12 8.2 5.1 81 1019.0 16.8 SE 22.8 0.0 0.0
13:13 8.2 5.1 81 1019.1 19.0 S 22.8 0.0 0.0
13:14 8.3 5.2 81 1019.2 17.4 S 22.1 0.0 0.0
13:15 8.3 5.2 81 1019.2 16.8 S 21.3 0.0 0.0
13:16 8.2 5.1 81 1019.1 15.2 S 19.0 0.0 0.0
13:17 8.3 5.2 81 1019.0 13.0 S 19.0 0.0 0.0
13:18 8.3 5.2 81 1019.0 13.6 S 19.0 0.0 0.0
13:19 8.4 5.3 81 1018.9 17.4 S 19.0 0.0 0.0
13:20 8.4 5.5 82 1019.0 18.3 S 19.0 0.0 0.0
13:21 8.4 5.5 82 1018.9 21.3 E 21.3 0.0 0.0
13:22 8.4 5.3 81 1018.9 19.7 S 21.3 0.0 0.0
13:23 8.4 5.3 81 1018.7 17.4 S 21.3 0.0 0.0
13:24 8.4 5.3 81 1018.9 21.3 SW 21.3 0.0 0.0
13:25 8.4 5.3 81 1018.7 13.6 S 21.3 0.0 0.0
13:26 8.4 5.5 82 1018.7 15.9 S 21.3 0.0 0.0
13:27 8.4 5.5 82 1018.8 13.0 S 21.3 0.0 0.0
13:28 8.4 5.5 82 1018.7 17.4 S 21.3 0.0 0.0
13:29 8.5 5.6 82 1018.7 18.3 S 21.3 0.0 0.0
13:30 8.5 5.6 82 1018.6 19.0 S 21.3 0.0 0.0
13:31 8.5 5.6 82 1018.7 12.1 SW 21.3 0.0 0.0
13:32 8.5 5.6 82 1018.5 18.3 S 21.3 0.0 0.0
13:33 8.4 5.5 82 1018.5 19.0 S 21.3 0.0 0.0
13:34 8.4 5.3 81 1018.6 22.1 S 22.1 0.0 0.0
13:35 8.4 5.3 81 1018.5 20.6 S 22.1 0.0 0.0
13:36 8.3 5.2 81 1018.5 19.7 S 22.1 0.0 0.0
13:37 8.3 5.2 81 1018.5 21.3 SW 22.1 0.0 0.0
13:38 8.3 5.2 81 1018.4 15.2 S 22.1 0.0 0.0
13:40 8.3 5.2 81 1018.4 15.2 S 22.1 0.0 0.0
13:41 8.3 5.4 82 1018.4 19.0 S 22.1 0.0 0.0
13:42 8.3 5.4 82 1018.3 21.3 NNW 22.1 0.0 0.0
13:43 8.3 5.4 82 1018.2 16.8 S 22.1 0.0 0.0
13:44 8.3 5.4 82 1018.3 17.4 S 22.1 0.0 0.0
13:45 8.3 5.4 82 1018.3 18.3 S 22.1 0.0 0.0
13:46 8.3 5.4 82 1018.5 14.5 S 21.3 0.0 0.0
13:47 8.4 5.5 82 1018.3 19.0 SW 21.3 0.0 0.0
13:48 8.4 5.5 82 1018.3 15.2 W 21.3 0.0 0.0
13:49 8.4 5.5 82 1018.3 16.8 S 21.3 0.0 0.0
13:50 8.4 5.5 82 1018.4 16.8 SW 21.3 0.0 0.0
13:51 8.5 5.6 82 1018.2 15.9 N 21.3 0.0 0.0
13:52 8.4 5.5 82 1018.2 15.9 S 19.0 0.0 0.0
13:53 8.5 5.6 82 1018.2 20.6 S 20.6 0.0 0.0
13:54 8.4 5.5 82 1018.2 18.3 S 20.6 0.0 0.0
13:55 8.4 5.5 82 1018.1 19.0 S 20.6 0.0 0.0
13:56 8.4 5.5 82 1018.2 17.4 S 20.6 0.0 0.0
13:57 8.4 5.5 82 1018.2 17.4 S 20.6 0.0 0.0
13:58 8.4 5.5 82 1018.2 21.3 SW 21.3 0.0 0.0
13:59 8.3 5.4 82 1018.1 16.8 S 21.3 0.0 0.0
14:00 8.3 5.4 82 1018.1 13.0 S 21.3 0.0 0.0
14:02 8.3 5.4 82 1018.0 17.4 S 21.3 0.0 0.0
14:03 8.3 5.4 82 1018.1 18.3 SE 21.3 0.0 0.0
14:04 8.3 5.4 82 1018.0 17.4 SE 21.3 0.0 0.0
14:05 8.3 5.4 82 1017.8 15.9 S 21.3 0.0 0.0
14:06 8.3 5.4 82 1017.9 18.3 S 21.3 0.0 0.0
14:07 8.3 5.4 82 1017.9 12.1 S 21.3 0.0 0.0
14:08 8.3 5.4 82 1017.9 16.8 S 21.3 0.0 0.0
14:09 8.3 5.4 82 1017.9 15.9 SE 19.0 0.0 0.0
14:11 8.3 5.4 82 1017.9 16.8 S 19.0 0.0 0.0
14:12 8.4 5.5 82 1017.8 15.9 SE 19.0 0.0 0.0
14:13 8.4 5.5 82 1017.7 17.4 S 19.0 0.0 0.0
14:14 8.4 5.3 81 1017.8 13.6 SE 19.0 0.0 0.0
14:15 8.4 5.5 82 1017.8 19.7 WNW 19.7 0.0 0.0
14:16 8.4 5.3 81 1017.8 21.3 S 21.3 0.0 0.0
14:17 8.4 5.3 81 1017.9 18.3 S 21.3 0.0 0.0
14:18 8.4 5.3 81 1017.7 22.8 S 22.8 0.0 0.0
14:19 8.4 5.3 81 1017.8 19.7 WSW 22.8 0.0 0.0
14:20 8.4 5.3 81 1017.6 16.8 S 22.8 0.0 0.0
14:21 8.4 5.3 81 1017.8 20.6 S 22.8 0.0 0.0
14:22 8.3 5.2 81 1017.7 19.7 S 22.8 0.0 0.0
14:24 8.4 5.3 81 1017.7 16.8 NE 22.8 0.0 0.0
14:25 8.4 5.3 81 1017.5 14.5 S 22.8 0.0 0.0
14:26 8.4 5.3 81 1017.7 24.4 WNW 24.4 0.0 0.0
14:27 8.4 5.3 81 1017.6 19.7 S 24.4 0.0 0.0
14:28 8.4 5.3 81 1017.4 21.3 S 24.4 0.0 0.0
14:29 8.4 5.3 81 1017.5 25.9 S 25.9 0.0 0.0
14:30 8.5 5.4 81 1017.5 22.1 S 25.9 0.0 0.0
14:31 8.5 5.2 80 1017.5 19.7 SE 25.9 0.0 0.0
14:32 8.5 5.2 80 1017.5 21.3 SW 25.9 0.0 0.0
14:33 8.5 5.2 80 1017.4 22.8 SW 25.9 0.0 0.0
14:34 8.4 5.2 80 1017.2 25.1 W 25.9 0.0 0.0
14:35 8.5 5.2 80 1017.3 16.8 S 25.9 0.0 0.0
14:36 8.5 5.2 80 1017.3 19.0 S 25.9 0.0 0.0
14:37 8.5 5.2 80 1017.2 20.6 SW 25.9 0.0 0.0
14:38 8.5 5.2 80 1017.4 19.0 S 25.9 0.0 0.0
14:39 8.5 5.2 80 1017.2 22.1 S 25.1 0.0 0.0
14:40 8.5 5.2 80 1017.3 21.3 SW 25.1 0.0 0.0
14:41 8.5 5.2 80 1017.2 18.3 SW 25.1 0.0 0.0
14:42 8.6 5.3 80 1017.3 17.4 S 25.1 0.0 0.0
14:44 8.5 5.2 80 1017.3 16.8 SW 25.1 0.0 0.0
14:45 8.6 5.5 81 1017.2 19.0 S 22.1 0.0 0.0
14:46 8.6 5.3 80 1017.2 20.6 SW 22.1 0.0 0.0
14:47 8.5 5.2 80 1017.2 16.8 S 22.1 0.0 0.0
14:48 8.5 5.2 80 1017.2 19.7 SW 22.1 0.0 0.0
14:49 8.5 5.2 80 1017.4 28.9 S 28.9 0.0 0.0
14:50 8.5 5.2 80 1017.2 20.6 S 28.9 0.0 0.0
14:51 8.4 5.2 80 1017.3 22.8 S 28.9 0.0 0.0
14:52 8.4 5.2 80 1017.1 25.1 S 28.9 0.0 0.0
14:53 8.4 5.2 80 1017.2 15.9 S 28.9 0.0 0.0
14:54 8.4 5.3 81 1017.2 20.6 SW 28.9 0.0 0.0
14:55 8.4 5.3 81 1016.9 17.4 S 28.9 0.0 0.0
14:56 8.4 5.3 81 1017.2 25.9 S 28.9 0.0 0.0
14:57 8.4 5.3 81 1016.9 17.4 S 28.9 0.0 0.0
14:59 8.4 5.3 81 1016.9 19.0 S 28.9 0.0 0.0
15:00 8.5 5.4 81 1016.9 20.6 S 25.9 0.0 0.0
15:01 8.5 5.4 81 1016.9 17.4 S 25.9 0.0 0.0
15:02 8.5 5.4 81 1016.9 15.9 S 25.9 0.0 0.0
15:03 8.4 5.3 81 1017.0 18.3 S 25.9 0.0 0.0
15:04 8.4 5.3 81 1016.9 14.5 S 25.9 0.0 0.0
15:05 8.4 5.3 81 1016.9 15.9 S 25.9 0.0 0.0
15:06 8.4 5.3 81 1016.7 17.4 S 25.9 0.0 0.0
15:07 8.4 5.3 81 1016.7 16.8 S 20.6 0.0 0.0
15:08 8.3 5.2 81 1016.8 13.6 S 20.6 0.0 0.0
15:10 8.3 5.2 81 1016.8 22.1 S 22.1 0.0 0.0
15:11 8.4 5.3 81 1016.6 20.6 S 22.1 0.0 0.0
15:12 8.3 5.2 81 1016.7 20.6 S 22.1 0.0 0.0
15:13 8.3 5.2 81 1016.7 17.4 S 22.1 0.0 0.0
15:14 8.3 5.2 81 1016.6 19.7 S 22.1 0.0 0.0
15:15 8.3 5.2 81 1016.7 17.4 S 22.1 0.0 0.0
15:16 8.3 5.2 81 1016.4 19.7 W 22.1 0.0 0.0
15:17 8.3 5.2 81 1016.5 20.6 SW 22.1 0.0 0.0
15:18 8.3 5.2 81 1016.4 14.5 SE 22.1 0.0 0.0
15:19 8.3 5.2 81 1016.5 19.7 S 22.1 0.0 0.0
15:20 8.3 5.2 81 1016.6 15.2 S 20.6 0.0 0.0
15:21 8.3 5.4 82 1016.5 17.4 S 20.6 0.0 0.0
15:22 8.3 5.4 82 1016.6 15.9 S 20.6 0.0 0.0
15:23 8.4 5.5 82 1016.6 19.0 S 20.6 0.0 0.0
15:25 8.4 5.5 82 1016.6 21.3 S 21.3 0.0 0.0
15:26 8.4 5.5 82 1016.5 16.8 SE 21.3 0.0 0.0
15:27 8.4 5.5 82 1016.5 17.4 SW 21.3 0.0 0.0
15:28 8.4 5.5 82 1016.5 17.4 SW 21.3 0.0 0.0
15:29 8.4 5.5 82 1016.4 21.3 S 21.3 0.0 0.0
15:30 8.4 5.5 82 1016.3 17.4 S 21.3 0.0 0.0
15:31 8.4 5.5 82 1016.4 19.0 S 21.3 0.0 0.0
15:32 8.4 5.5 82 1016.3 18.3 S 21.3 0.0 0.0
15:33 8.3 5.4 82 1016.3 13.6 S 21.3 0.0 0.0
15:35 8.3 5.4 82 1016.3 17.4 S 21.3 0.0 0.0
15:36 8.3 5.4 82 1016.3 17.4 SW 21.3 0.0 0.0
15:37 8.3 5.4 82 1016.2 13.6 S 21.3 0.0 0.0
15:38 8.3 5.4 82 1016.1 19.7 SE 21.3 0.0 0.0
15:39 8.3 5.4 82 1016.1 21.3 S 21.3 0.0 0.0
15:40 8.3 5.4 82 1016.3 18.3 S 21.3 0.0 0.0
15:41 8.3 5.4 82 1016.2 22.1 SE 22.1 0.0 0.0
15:42 8.3 5.4 82 1016.1 15.2 SE 22.1 0.0 0.0
15:43 8.3 5.4 82 1016.0 15.9 S 22.1 0.0 0.0
15:44 8.3 5.6 83 1015.9 17.4 SW 22.1 0.0 0.0
15:45 8.3 5.6 83 1016.0 15.2 S 22.1 0.0 0.0
15:46 8.3 5.6 83 1015.9 20.6 S 22.1 0.0 0.0
15:47 8.3 5.6 83 1015.9 22.1 NW 22.1 0.0 0.0
15:48 8.3 5.6 83 1015.9 20.6 WSW 22.1 0.0 0.0
15:49 8.3 5.6 83 1016.0 17.4 NNW 22.1 0.0 0.0
15:51 8.3 5.6 83 1016.0 16.8 S 22.1 0.0 0.0
15:52 8.3 5.4 82 1016.0 23.5 S 23.5 0.0 0.0
15:53 8.3 5.4 82 1015.9 20.6 S 23.5 0.0 0.0
15:54 8.3 5.4 82 1015.8 19.0 SW 23.5 0.0 0.0
15:55 8.3 5.4 82 1015.9 13.6 S 23.5 0.0 0.0
15:56 8.2 5.5 83 1015.7 15.2 S 23.5 0.0 0.0
15:57 8.2 5.5 83 1015.9 19.7 SW 23.5 0.0 0.0
15:58 8.2 5.3 82 1015.7 17.4 S 23.5 0.0 0.0
15:59 8.2 5.5 83 1015.6 17.4 SW 23.5 0.0 0.0
16:00 8.2 5.5 83 1015.6 15.2 S 23.5 0.0 0.0
16:02 8.2 5.5 83 1015.6 19.7 S 23.5 0.0 0.0
16:03 8.2 5.5 83 1015.5 19.0 S 20.6 0.0 0.0
16:04 8.1 5.4 83 1015.5 13.0 S 19.7 0.0 0.0
16:05 8.1 5.4 83 1015.6 18.3 S 19.7 0.0 0.0
16:06 8.1 5.4 83 1015.5 20.6 S 20.6 0.0 0.0
16:07 8.1 5.4 83 1015.5 17.4 S 20.6 0.0 0.0
16:08 8.1 5.6 84 1015.4 17.4 S 20.6 0.0 0.0
16:09 8.1 5.6 84 1015.4 19.7 S 20.6 0.0 0.0
16:11 8.1 5.6 84 1015.4 17.4 SE 20.6 0.0 0.0
16:12 8.2 5.7 84 1015.4 15.2 S 20.6 0.0 0.0
16:13 8.2 5.7 84 1015.3 15.2 S 20.6 0.0 0.0
16:14 8.2 5.7 84 1015.2 18.3 S 20.6 0.0 0.0
16:15 8.2 5.7 84 1015.2 20.6 SW 20.6 0.0 0.0
16:16 8.2 5.7 84 1015.2 13.6 S 20.6 0.0 0.0
16:17 8.2 5.7 84 1015.1 14.5 S 20.6 0.0 0.0
16:19 8.3 5.8 84 1015.1 14.5 S 20.6 0.0 0.0
16:20 8.3 5.9 85 1015.2 19.0 WSW 20.6 0.0 0.0
16:21 8.3 5.9 85 1015.0 19.0 WSW 20.6 0.0 0.0
16:22 8.3 5.8 84 1015.1 17.4 S 20.6 0.0 0.0
16:23 8.4 5.9 84 1015.0 19.7 S 20.6 0.0 0.0
16:24 8.3 5.8 84 1015.0 17.4 WNW 20.6 0.0 0.0
16:25 8.3 5.8 84 1015.2 16.8 S 20.6 0.0 0.0
16:26 8.3 5.8 84 1015.0 16.8 SW 22.1 0.0 0.0
16:27 8.3 5.8 84 1015.0 17.4 SW 22.1 0.0 0.0
16:28 8.3 5.8 84 1015.0 19.0 S 22.1 0.0 0.0
16:30 8.3 5.8 84 1015.0 15.2 SW 22.1 0.0 0.0
16:31 8.3 5.8 84 1015.0 18.3 SE 22.1 0.0 0.0
16:32 8.3 5.8 84 1014.9 20.6 S 22.1 0.0 0.0
16:33 8.2 5.7 84 1015.1 24.4 W 24.4 0.0 0.0
16:34 8.2 5.7 84 1015.0 20.6 S 24.4 0.0 0.0
16:35 8.2 5.7 84 1015.1 22.8 S 24.4 0.0 0.0
16:36 8.2 5.7 84 1014.7 19.0 SE 24.4 0.0 0.0
16:37 8.2 5.7 84 1014.8 14.5 S 24.4 0.0 0.0
16:38 8.1 5.7 85 1014.9 14.5 S 24.4 0.0 0.0
16:39 8.1 5.7 85 1014.8 22.8 SE 24.4 0.0 0.0
16:40 8.1 5.7 85 1015.0 14.5 NNW 24.4 0.0 0.0
16:41 8.1 5.7 85 1014.9 19.0 SSW 24.4 0.0 0.0
16:42 8.1 5.7 85 1014.9 15.9 S 22.8 0.0 0.0
16:43 8.0 5.6 85 1014.8 15.2 S 22.8 0.0 0.0
16:44 8.0 5.6 85 1015.1 15.2 SE 22.8 0.0 0.0
16:45 8.0 5.6 85 1014.9 20.6 WSW 22.8 0.0 0.0
16:47 8.0 5.6 85 1014.7 15.9 S 22.8 0.0 0.0
16:48 8.0 5.6 85 1014.6 19.7 S 22.8 0.0 0.0
16:49 7.9 5.5 85 1014.8 19.0 S 22.8 0.0 0.0
16:50 7.9 5.5 85 1014.8 19.7 S 20.6 0.0 0.0
16:51 7.9 5.5 85 1014.7 19.0 S 20.6 0.0 0.0
16:52 7.9 5.5 85 1014.7 20.6 S 20.6 0.0 0.0
16:53 7.9 5.5 85 1014.6 18.3 SE 20.6 0.0 0.0
16:54 7.9 5.5 85 1014.5 18.3 S 20.6 0.0 0.0
16:55 7.9 5.7 86 1014.8 17.4 S 20.6 0.0 0.0
16:56 7.9 5.7 86 1014.6 21.3 S 21.3 0.0 0.0
16:57 7.9 5.7 86 1014.5 24.4 S 24.4 0.0 0.0
16:58 7.9 5.7 86 1014.7 22.1 S 24.4 0.0 0.0
16:59 7.9 5.7 86 1014.7 23.5 S 24.4 0.0 0.0
17:00 7.8 5.6 86 1014.5 18.3 S 24.4 0.0 0.0
17:01 7.8 5.6 86 1014.6 18.3 S 24.4 0.0 0.0
17:02 7.8 5.8 87 1014.6 22.1 S 24.4 0.0 0.0
17:03 7.8 5.8 87 1014.5 22.1 SW 24.4 0.0 0.0
17:04 7.8 5.8 87 1014.9 27.3 S 27.3 0.0 0.0
17:06 7.7 5.7 87 1014.4 24.4 S 27.3 0.0 0.0
17:07 7.7 5.7 87 1014.5 21.3 S 27.3 0.0 0.0
17:08 7.7 5.7 87 1014.5 23.5 SW 27.3 0.0 0.0
17:09 7.6 5.7 88 1014.7 21.3 S 27.3 0.0 0.0
17:10 7.6 5.7 88 1014.4 24.4 S 27.3 0.0 0.0
17:11 7.6 5.7 88 1014.4 23.5 S 27.3 0.0 0.0
17:12 7.5 5.6 88 1014.5 27.3 S 27.3 0.0 0.0
17:13 7.5 5.6 88 1014.4 19.7 S 27.3 0.0 0.0
17:14 7.4 5.7 89 1014.3 22.1 S 27.3 0.0 0.0
17:15 7.4 5.7 89 1014.3 18.3 S 27.3 0.0 0.0
17:16 7.3 5.8 90 1014.2 23.5 SE 27.3 0.0 0.0
17:17 7.3 5.8 90 1014.2 21.3 S 27.3 0.0 0.0
17:18 7.2 5.7 90 1014.3 19.7 S 27.3 0.0 0.0
17:19 7.2 5.8 91 1014.3 18.3 S 27.3 0.0 0.0
17:20 7.2 5.8 91 1014.2 19.0 S 27.3 0.0 0.0
17:21 7.1 5.7 91 1014.3 22.8 S 27.3 0.0 0.0
17:23 7.1 5.9 92 1014.2 22.1 S 25.1 0.0 0.0
17:24 7.1 5.9 92 1014.1 21.3 S 25.1 0.0 0.0
17:25 7.0 5.8 92 1014.2 21.3 S 25.1 0.8 0.1
17:26 7.0 5.8 92 1014.0 19.7 SE 25.1 0.8 0.1
17:27 7.0 5.8 92 1014.0 18.3 S 25.1 0.8 0.1
17:28 6.9 5.8 93 1014.1 17.4 S 25.1 0.8 0.1
17:29 6.9 5.8 93 1014.1 15.9 S 25.1 0.8 0.1
17:30 6.9 6.0 94 1014.1 22.1 S 25.1 0.0 0.1
17:31 6.8 5.9 94 1014.0 21.3 S 25.1 0.8 0.1
17:32 6.9 6.0 94 1014.1 21.3 S 23.5 0.8 0.1
17:33 6.8 5.9 94 1014.0 21.3 WSW 23.5 0.8 0.1
17:34 6.8 5.9 94 1014.0 19.0 SE 23.5 0.8 0.1
17:35 6.8 6.1 95 1014.1 18.3 S 22.1 0.8 0.1
17:36 6.8 5.9 94 1014.1 22.1 SE 22.1 0.0 0.1
17:37 6.8 6.1 95 1013.9 19.0 SE 22.1 0.0 0.2
17:39 6.7 6.0 95 1013.7 18.3 S 22.1 0.8 0.2
17:40 6.7 6.0 95 1013.9 20.6 S 22.1 0.8 0.2
17:41 6.7 6.1 96 1013.8 20.6 S 22.8 1.5 0.3
17:42 6.7 6.1 96 1013.7 18.3 S 22.8 1.5 0.3
17:43 6.7 6.1 96 1013.9 23.5 S 23.5 0.8 0.3
17:44 6.7 6.1 96 1014.0 27.3 WSW 27.3 0.8 0.3
17:45 6.7 6.3 97 1013.8 20.6 SE 27.3 0.8 0.3
17:46 6.7 6.3 97 1013.7 23.5 S 27.3 0.0 0.3
17:47 6.7 6.3 97 1013.7 28.9 S 28.9 0.0 0.3
17:48 6.6 6.2 97 1013.8 21.3 S 28.9 0.8 0.3
17:49 6.6 6.3 98 1013.8 18.3 S 28.9 0.8 0.3
17:50 6.6 6.3 98 1013.7 21.3 S 28.9 0.8 0.3
17:51 6.6 6.3 98 1013.7 22.1 S 28.9 0.8 0.3
17:52 6.6 6.3 98 1013.6 19.0 SE 28.9 0.8 0.3
17:53 6.6 6.3 98 1013.5 22.8 S 28.9 0.0 0.3
17:54 6.6 6.3 98 1013.7 23.5 S 28.9 0.0 0.4
17:55 6.6 6.5 99 1013.5 22.8 WSW 28.9 0.8 0.4
17:56 6.6 6.5 99 1013.5 19.0 S 28.9 0.8 0.4
17:57 6.6 6.5 99 1013.5 16.8 WSW 23.5 0.8 0.4
17:59 6.6 6.5 99 1013.6 15.9 S 23.5 0.8 0.4
18:00 6.6 6.5 99 1013.5 20.6 S 23.5 0.0 0.4
18:01 6.7 6.6 99 1013.4 17.4 S 23.5 0.0 0.4
18:02 6.6 6.5 99 1013.4 15.2 S 23.5 0.0 0.4
18:03 6.7 6.6 99 1013.3 21.3 WSW 23.5 0.8 0.4
18:04 6.7 6.6 99 1013.5 18.3 S 23.5 0.8 0.4
18:05 6.7 6.6 99 1013.3 17.4 S 22.8 0.8 0.4
18:06 6.7 6.6 99 1013.3 18.3 S 21.3 0.8 0.4
18:08 6.7 6.6 99 1013.3 18.3 S 21.3 0.8 0.5
18:09 6.7 6.6 99 1013.2 15.2 N 21.3 0.8 0.5
18:10 6.7 6.6 99 1013.3 23.5 NNE 23.5 0.8 0.6
18:11 6.7 6.6 99 1013.2 21.3 NW 23.5 1.5 0.6
18:14 6.7 6.6 99 1013.3 22.1 S 23.5 0.8 0.6
18:17 6.7 6.6 99 1013.2 18.3 S 28.2 0.8 0.6
18:19 6.7 6.6 99 1013.2 20.6 S 28.2 1.5 0.7
18:21 6.7 6.6 99 1013.0 18.3 S 28.2 0.8 0.7
18:24 6.7 6.6 99 1013.0 21.3 S 28.2 0.0 0.7
18:26 6.7 6.6 99 1012.7 20.6 S 21.3 0.8 0.8
18:29 6.7 6.6 99 1012.8 19.0 SE 22.8 1.5 0.8
18:31 6.7 6.6 99 1012.8 21.3 S 24.4 0.8 0.8
18:34 6.7 6.6 99 1012.7 15.2 S 24.4 0.8 0.9
18:36 6.7 6.6 99 1012.6 24.4 S 24.4 0.8 0.9
18:39 6.7 6.6 99 1012.6 18.3 S 24.4 0.8 0.9
18:41 6.8 6.7 99 1012.6 19.7 S 24.4 0.8 0.9
18:43 6.8 6.7 99 1012.6 22.1 S 24.4 1.5 1.0
18:45 6.8 6.7 99 1012.5 19.0 S 24.4 0.8 1.0
18:47 6.8 6.7 99 1012.3 19.7 S 22.1 0.8 1.0
18:48 6.8 6.7 99 1012.2 16.8 SE 22.1 0.0 1.1
18:50 6.8 6.7 99 1012.3 16.8 S 22.8 0.8 1.1
18:52 6.8 6.7 99 1012.2 17.4 S 22.8 0.8 1.1
18:55 6.7 6.6 99 1012.2 15.9 S 22.8 1.5 1.2
18:57 6.8 6.7 99 1012.1 19.0 S 22.8 1.5 1.2
18:59 6.8 6.7 99 1012.2 19.0 SE 22.8 1.5 1.3
19:01 6.8 6.7 99 1012.2 16.8 SE 20.6 2.3 1.4
19:03 6.8 6.7 99 1011.9 16.8 S 20.6 3.0 1.5
19:05 6.8 6.7 99 1012.1 15.9 S 20.6 3.0 1.6
19:07 6.8 6.7 99 1012.0 18.3 S 20.6 2.3 1.6
19:10 6.9 6.8 99 1012.0 22.1 S 22.1 1.5 1.7
19:12 6.8 6.7 99 1011.9 19.7 S 22.1 1.5 1.7
19:14 6.9 6.8 99 1011.9 20.6 SE 22.1 0.8 1.8
19:16 6.9 6.8 99 1011.8 15.2 S 22.1 0.8 1.8
19:18 6.9 6.8 99 1011.8 21.3 S 22.1 0.0 1.8
19:19 6.9 6.8 99 1011.8 21.3 S 22.1 0.0 1.8
19:20 6.9 6.8 99 1012.0 21.3 S 21.3 0.8 1.8
19:21 6.9 6.8 99 1011.7 16.8 S 21.3 0.8 1.8
19:22 6.9 6.8 99 1011.7 20.6 S 21.3 0.8 1.8
19:23 6.9 6.8 99 1011.7 15.9 S 21.3 0.8 1.8
19:24 6.9 6.8 99 1011.7 19.7 S 21.3 0.8 1.8
19:25 6.9 6.8 99 1011.7 22.8 S 22.8 0.0 1.8
19:27 6.9 6.8 99 1011.7 19.0 S 22.8 0.0 1.8
19:28 6.9 6.8 99 1011.8 22.8 NNW 22.8 0.0 1.8
19:29 6.9 6.8 99 1011.7 22.8 S 22.8 0.8 1.9
19:30 7.0 6.9 99 1011.7 15.2 WSW 22.8 0.8 1.9
19:31 7.1 7.0 99 1011.4 15.2 W 22.8 0.8 1.9
19:32 7.0 6.9 99 1011.6 15.9 S 22.8 1.5 2.0
19:33 7.0 6.9 99 1011.6 15.2 S 22.8 1.5 2.0
19:34 7.0 6.9 99 1011.5 22.1 S 22.8 0.8 2.0
19:36 7.0 6.9 99 1011.5 17.4 S 22.8 1.5 2.0
19:37 7.1 7.0 99 1011.5 15.9 S 22.8 0.8 2.0
19:38 7.0 6.9 99 1011.4 21.3 S 22.8 0.8 2.0
19:39 7.0 6.9 99 1011.4 15.2 WNW 22.8 0.8 2.1
19:40 7.0 6.9 99 1011.4 20.6 S 22.8 1.5 2.1
19:41 7.0 6.9 99 1011.3 20.6 S 22.8 0.8 2.1
19:42 7.0 6.9 99 1011.3 17.4 NW 22.8 0.8 2.1
19:44 7.0 6.9 99 1011.4 22.1 WSW 22.8 1.5 2.1
19:45 7.0 6.9 99 1011.4 23.5 S 23.5 0.8 2.1
19:46 7.0 6.9 99 1011.4 15.9 S 23.5 0.8 2.1
19:47 7.0 6.9 99 1011.2 19.0 SE 23.5 1.5 2.2
19:48 7.0 6.9 99 1011.3 20.6 S 23.5 1.5 2.2
19:49 7.0 6.9 99 1011.1 16.8 S 23.5 0.8 2.2
19:50 7.0 6.9 99 1011.2 19.7 S 23.5 0.8 2.3
19:51 7.0 6.9 99 1011.1 14.5 S 23.5 1.5 2.3
19:52 7.0 6.9 99 1011.2 22.8 NNW 23.5 0.8 2.3
19:54 7.0 6.9 99 1010.9 21.3 S 23.5 1.5 2.3
19:55 7.0 6.9 99 1010.9 19.0 SE 23.5 1.5 2.3
19:56 7.0 6.9 99 1010.9 17.4 SE 23.5 0.8 2.4
19:57 7.0 6.9 99 1010.9 26.6 SE 26.6 1.5 2.4
19:58 7.0 6.9 99 1010.9 20.6 S 26.6 1.5 2.4
20:00 7.0 6.9 99 1010.9 19.7 S 26.6 1.5 2.5
20:01 7.0 6.9 99 1010.9 23.5 S 26.6 1.5 2.5
20:02 7.0 6.9 99 1010.8 23.5 S 26.6 0.8 2.5
20:03 7.0 6.9 99 1011.0 23.5 S 26.6 0.8 2.5
20:04 7.0 6.9 99 1010.8 23.5 S 26.6 0.8 2.5
20:05 7.0 6.9 99 1010.9 23.5 S 26.6 0.0 2.5
20:06 7.1 7.0 99 1010.8 21.3 S 26.6 0.0 2.5
20:08 7.0 6.9 99 1010.7 21.3 SE 23.5 1.5 2.6
20:09 7.1 7.0 99 1010.7 20.6 S 23.5 1.5 2.6
20:10 7.1 7.0 99 1010.7 17.4 SE 23.5 1.5 2.6
20:12 7.1 7.0 99 1010.6 23.5 S 23.5 1.5 2.6
20:14 7.1 7.0 99 1010.6 16.8 S 23.5 1.5 2.7
20:15 7.1 7.0 99 1010.7 20.6 S 23.5 1.5 2.7
20:17 7.1 7.0 99 1010.6 16.8 S 23.5 0.8 2.7
20:18 7.1 7.0 99 1010.5 20.6 S 23.5 1.5 2.8
20:19 7.0 6.9 99 1010.5 23.5 S 23.5 0.8 2.8
20:20 7.1 7.0 99 1010.6 21.3 S 25.9 1.5 2.8
20:21 7.1 7.0 99 1010.4 22.8 S 25.9 1.5 2.9
20:22 7.1 7.0 99 1010.3 22.8 S 25.9 2.3 3.0
20:24 7.1 7.0 99 1010.4 19.0 SE 25.9 3.8 3.1
20:25 7.1 7.0 99 1010.5 19.0 S 25.9 3.0 3.1
20:26 7.1 7.0 99 1010.4 22.1 S 25.9 3.8 3.1
20:27 7.1 7.0 99 1010.1 25.1 S 25.9 3.0 3.1
20:28 7.1 7.0 99 1010.5 19.0 S 25.9 2.3 3.2
20:30 7.1 7.0 99 1010.3 25.9 SE 25.9 1.5 3.2
20:31 7.1 7.0 99 1010.2 21.3 SE 25.9 1.5 3.3
20:33 7.2 7.1 99 1010.2 20.6 S 25.9 1.5 3.3
20:34 7.2 7.1 99 1010.1 20.6 S 25.9 1.5 3.3
20:35 7.2 7.1 99 1010.2 18.3 WSW 25.9 1.5 3.3
20:36 7.2 7.1 99 1010.2 22.8 S 25.9 1.5 3.4
20:38 7.2 7.1 99 1010.3 20.6 S 25.9 0.8 3.4
20:39 7.2 7.1 99 1010.2 22.1 S 25.9 1.5 3.5
20:40 7.2 7.1 99 1010.0 21.3 S 23.5 1.5 3.5
20:41 7.2 7.1 99 1010.3 18.3 S 23.5 1.5 3.5
20:42 7.2 7.1 99 1010.0 17.4 WSW 23.5 2.3 3.6
20:44 7.2 7.1 99 1009.9 21.3 WSW 23.5 2.3 3.7
20:45 7.2 7.1 99 1010.0 21.3 S 23.5 3.0 3.7
20:46 7.2 7.1 99 1010.0 22.8 S 23.5 2.3 3.8
20:47 7.2 7.1 99 1009.9 25.9 S 25.9 3.0 3.8
20:48 7.3 7.2 99 1009.9 25.9 S 26.6 3.0 4.0
20:49 7.3 7.2 99 1009.8 16.8 S 26.6 3.8 4.0
20:51 7.3 7.2 99 1009.9 24.4 S 26.6 4.5 4.1
20:52 7.2 7.1 99 1009.7 25.9 SE 26.6 3.0 4.1
20:53 7.3 7.2 99 1009.7 22.1 S 26.6 3.8 4.2
20:54 7.3 7.2 99 1009.7 21.3 S 26.6 3.8 4.3
20:55 7.3 7.2 99 1009.8 19.7 S 26.6 3.8 4.3
20:56 7.3 7.2 99 1009.7 23.5 SW 26.6 3.0 4.4
20:57 7.4 7.3 99 1009.6 17.4 S 26.6 3.8 4.5
20:58 7.3 7.2 99 1009.6 15.2 S 25.9 3.8 4.5
21:00 7.4 7.3 99 1009.8 15.2 S 25.9 3.8 4.6
21:01 7.4 7.3 99 1009.7 19.7 S 25.9 3.0 4.6
21:02 7.4 7.3 99 1009.7 19.7 S 25.9 2.3 4.6
21:03 7.4 7.3 99 1009.7 18.3 S 23.5 3.0 4.7
21:04 7.4 7.3 99 1009.7 22.1 SE 23.5 1.5 4.7
21:05 7.4 7.3 99 1009.6 20.6 S 23.5 2.3 4.8
21:06 7.4 7.3 99 1009.4 22.8 S 23.5 2.3 4.9
21:07 7.4 7.3 99 1009.6 22.8 SE 22.8 3.0 4.9
21:08 7.5 7.4 99 1009.8 26.6 S 26.6 1.5 4.9
21:10 7.4 7.3 99 1009.4 20.6 S 26.6 1.5 4.9
21:11 7.4 7.3 99 1009.5 18.3 SE 26.6 2.3 5.0
21:12 7.5 7.4 99 1009.6 22.8 S 26.6 1.5 5.0
21:13 7.4 7.3 99 1009.4 19.0 SE 26.6 1.5 5.0
21:14 7.4 7.3 99 1009.4 22.1 N 26.6 1.5 5.0
21:15 7.4 7.3 99 1009.5 21.3 S 26.6 2.3 5.1
21:16 7.5 7.4 99 1009.5 26.6 N 26.6 1.5 5.1
21:17 7.5 7.4 99 1009.5 20.6 S 26.6 1.5 5.2
21:19 7.4 7.3 99 1009.3 25.1 S 26.6 2.3 5.2
21:20 7.5 7.4 99 1009.3 20.6 S 26.6 2.3 5.3
21:21 7.4 7.3 99 1009.3 20.6 S 26.6 3.0 5.4
21:22 7.5 7.4 99 1009.2 23.5 SE 26.6 3.0 5.4
21:23 7.5 7.4 99 1009.2 25.1 SE 26.6 3.0 5.4
21:24 7.4 7.3 99 1009.0 19.7 S 26.6 3.0 5.5
21:25 7.4 7.3 99 1009.2 22.1 S 26.6 3.0 5.6
21:26 7.4 7.3 99 1009.2 15.2 WSW 26.6 3.0 5.6
21:27 7.4 7.3 99 1009.3 27.3 WSW 27.3 3.8 5.7
21:29 7.4 7.3 99 1009.3 19.0 WSW 27.3 3.0 5.7
21:30 7.4 7.3 99 1009.2 19.7 S 28.9 3.0 5.8
21:31 7.4 7.3 99 1009.1 15.9 W 28.9 3.0 5.9
21:32 7.7 7.6 99 1009.1 22.1 S 28.9 2.3 5.9
21:33 7.4 7.3 99 1009.1 20.6 S 28.9 2.3 5.9
21:34 7.5 7.4 99 1009.1 18.3 SE 28.9 3.0 6.0
21:35 7.4 7.3 99 1009.1 23.5 SE 28.9 3.0 6.0
21:36 7.4 7.3 99 1009.1 25.1 S 28.9 2.3 6.0
21:37 7.4 7.3 99 1008.8 22.8 WSW 28.9 2.3 6.0
21:38 7.4 7.3 99 1008.8 26.6 S 28.9 1.5 6.1
21:40 7.4 7.3 99 1008.9 20.6 S 26.6 0.8 6.1
21:41 7.4 7.3 99 1008.8 18.3 SE 26.6 0.8 6.1
21:42 7.5 7.4 99 1008.7 20.6 S 26.6 0.8 6.1
21:43 7.4 7.3 99 1008.8 19.0 WSW 26.6 0.8 6.1
21:44 7.5 7.4 99 1008.8 17.4 S 26.6 0.0 6.1
21:45 7.5 7.4 99 1008.7 23.5 S 26.6 0.0 6.1
21:46 7.5 7.4 99 1008.8 19.7 S 26.6 0.0 6.2
21:47 7.5 7.4 99 1008.6 20.6 S 26.6 0.8 6.2
21:49 7.5 7.4 99 1008.7 27.3 SE 27.3 1.5 6.2
21:50 7.5 7.4 99 1008.8 21.3 S 27.3 1.5 6.2
21:51 7.5 7.4 99 1008.7 26.6 S 27.3 1.5 6.2
21:52 7.5 7.4 99 1008.7 23.5 WNW 27.3 1.5 6.4
21:53 7.5 7.4 99 1008.6 22.1 S 27.3 2.3 6.4
21:54 7.5 7.4 99 1008.5 16.8 S 27.3 1.5 6.4
21:56 7.5 7.4 99 1008.5 22.8 S 27.3 2.3 6.4
21:57 7.5 7.4 99 1008.4 20.6 S 27.3 1.5 6.4
21:58 7.6 7.5 99 1008.4 25.1 S 27.3 0.8 6.4
21:59 7.5 7.4 99 1008.3 19.7 WNW 26.6 2.3 6.6
22:00 7.6 7.5 99 1008.4 22.8 WNW 26.6 3.0 6.6
22:01 7.6 7.5 99 1008.2 25.1 S 25.1 3.0 6.7
22:02 7.6 7.5 99 1008.4 19.0 S 25.1 3.0 6.7
22:04 7.6 7.5 99 1008.2 22.8 SE 25.1 2.3 6.7
22:05 7.6 7.5 99 1008.2 20.6 SE 25.1 2.3 6.8
22:06 7.6 7.5 99 1008.2 29.8 WSW 29.8 1.5 6.8
22:07 7.6 7.5 99 1008.0 22.8 SE 29.8 2.3 6.9
22:08 7.6 7.5 99 1008.2 22.1 WSW 29.8 1.5 6.9
22:09 7.6 7.5 99 1008.1 16.8 S 29.8 1.5 6.9
22:11 7.6 7.5 99 1008.0 19.7 S 29.8 1.5 6.9
22:12 7.6 7.5 99 1008.0 22.8 WSW 29.8 1.5 7.0
22:13 7.6 7.5 99 1008.0 18.3 S 29.8 1.5 7.0
22:15 7.6 7.5 99 1007.7 21.3 S 29.8 1.5 7.1
22:16 7.6 7.5 99 1007.8 19.7 S 22.8 2.3 7.1
22:18 7.6 7.5 99 1007.8 13.6 SE 22.8 1.5 7.1
22:19 7.6 7.5 99 1007.7 19.0 S 22.8 1.5 7.2
22:20 7.6 7.5 99 1007.6 20.6 S 22.8 1.5 7.2
22:21 7.6 7.5 99 1007.7 18.3 S 22.8 0.8 7.2
22:22 7.6 7.5 99 1007.6 18.3 SE 21.3 0.8 7.2
22:23 7.6 7.5 99 1007.7 20.6 SE 21.3 1.5 7.2
22:24 7.6 7.5 99 1007.6 22.8 S 27.3 2.3 7.4
22:26 7.6 7.5 99 1007.5 17.4 S 27.3 2.3 7.4
22:27 7.7 7.6 99 1007.6 16.8 S 27.3 3.0 7.4
22:28 7.7 7.6 99 1007.5 25.9 S 27.3 3.0 7.5
22:29 7.7 7.6 99 1007.3 22.1 S 27.3 2.3 7.5
22:30 7.7 7.6 99 1007.5 22.8 S 27.3 1.5 7.5
22:31 7.7 7.6 99 1007.3 21.3 S 27.3 1.5 7.6
22:32 7.7 7.6 99 1007.2 22.1 S 27.3 1.5 7.7
22:33 7.7 7.6 99 1007.3 20.6 S 27.3 2.3 7.7
22:35 7.7 7.6 99 1007.2 22.1 S 25.9 2.3 7.7
22:36 7.7 7.6 99 1007.4 18.3 S 25.9 2.3 7.7
22:38 7.7 7.6 99 1007.2 26.6 S 26.6 1.5 7.8
22:39 7.7 7.6 99 1007.1 22.1 S 26.6 1.5 7.9
22:40 7.7 7.6 99 1007.1 25.1 NE 26.6 3.0 7.9
22:44 7.8 7.7 99 1007.1 17.4 SW 26.6 3.8 8.1
22:45 7.8 7.7 99 1007.0 18.3 S 26.6 2.3 8.2
22:46 7.8 7.7 99 1007.0 16.8 S 26.6 3.0 8.3
22:47 7.8 7.7 99 1006.9 21.3 S 26.6 3.0 8.4
22:48 7.8 7.7 99 1006.9 19.7 S 25.9 3.8 8.5
22:50 7.8 7.7 99 1006.8 15.9 S 25.1 4.5 8.6
22:51 7.8 7.7 99 1006.9 18.3 S 24.4 4.5 8.6
22:52 7.8 7.7 99 1006.8 23.5 S 24.4 4.5 8.6
22:53 7.8 7.7 99 1006.9 21.3 S 23.5 3.8 8.7
22:54 7.8 7.7 99 1006.9 22.8 S 23.5 3.0 8.8
22:55 7.8 7.7 99 1006.6 15.2 S 23.5 3.0 8.8
22:56 7.8 7.7 99 1006.8 22.8 S 23.5 3.0 8.9
22:57 7.8 7.7 99 1006.7 20.6 S 23.5 3.0 8.9
22:58 7.9 7.8 99 1006.7 19.7 S 23.5 2.3 8.9
22:59 7.9 7.8 99 1006.7 17.4 S 23.5 2.3 9.0
23:01 7.9 7.8 99 1006.7 21.3 NNE 23.5 2.3 9.0
23:02 7.9 7.8 99 1006.7 18.3 S 23.5 1.5 9.1
23:03 7.9 7.8 99 1006.7 18.3 S 22.8 2.3 9.1
23:04 7.9 7.8 99 1006.5 22.1 S 22.8 2.3 9.1
23:05 7.9 7.8 99 1006.6 14.5 SSW 22.8 1.5 9.2
23:06 7.9 7.8 99 1006.5 18.3 WSW 22.8 2.3 9.2
23:07 7.9 7.8 99 1006.6 18.3 S 22.8 2.3 9.3
23:08 7.9 7.8 99 1006.5 18.3 S 22.8 2.3 9.3
23:10 7.9 7.8 99 1006.5 21.3 S 22.1 2.3 9.3
23:11 8.0 7.9 99 1006.4 19.0 WSW 22.1 1.5 9.4
23:12 8.0 7.9 99 1006.6 17.4 S 22.1 2.3 9.4
23:13 7.9 7.8 99 1006.3 22.8 S 22.8 1.5 9.4
23:14 7.9 7.8 99 1006.2 19.7 WSW 22.8 0.8 9.4
23:15 7.9 7.8 99 1006.2 22.8 S 22.8 0.8 9.4
23:16 8.0 7.9 99 1006.4 16.8 SE 22.8 1.5 9.4
23:17 8.0 7.9 99 1006.4 23.5 S 23.5 0.8 9.4
23:19 8.0 7.9 99 1006.3 19.7 SE 23.5 0.8 9.5
23:20 8.0 7.9 99 1006.3 22.1 S 23.5 1.5 9.5
23:21 8.0 7.9 99 1006.1 21.3 S 23.5 0.8 9.5
23:22 8.0 7.9 99 1006.2 21.3 S 23.5 0.8 9.5
23:23 8.0 7.9 99 1006.4 19.7 SE 23.5 0.8 9.5
23:24 8.0 7.9 99 1006.1 23.5 WSW 24.4 0.8 9.5
23:25 8.1 8.0 99 1006.2 16.8 S 24.4 0.0 9.6
23:26 8.0 7.9 99 1006.2 18.3 E 24.4 1.5 9.6
23:27 8.0 7.9 99 1006.3 22.8 S 24.4 1.5 9.6
23:29 8.0 7.9 99 1006.0 20.6 S 24.4 1.5 9.6
23:30 8.0 7.9 99 1006.2 17.4 S 24.4 1.5 9.6
23:31 8.1 8.0 99 1006.2 14.5 S 24.4 0.0 9.6
23:32 8.1 8.0 99 1006.2 28.9 S 28.9 0.8 9.7
23:33 8.1 8.0 99 1006.2 25.9 S 28.9 0.8 9.7
23:34 8.1 8.0 99 1005.9 24.4 S 28.9 0.8 9.7
23:35 8.1 8.0 99 1006.0 16.8 NNW 28.9 0.8 9.7
23:37 8.1 8.0 99 1006.1 20.6 S 28.9 0.0 9.7
23:38 8.1 8.0 99 1005.9 22.1 S 28.9 0.0 9.7
23:39 8.1 8.0 99 1005.9 19.0 WSW 28.9 0.0 9.7
23:40 8.1 8.0 99 1005.9 24.4 S 28.9 0.0 9.7
23:41 8.2 8.1 99 1006.0 22.8 WNW 28.9 0.0 9.7
23:42 8.2 8.1 99 1006.0 21.3 SE 25.9 0.0 9.7
23:43 8.2 8.1 99 1006.2 20.6 S 25.9 0.0 9.7
23:44 8.2 8.1 99 1006.0 19.7 SE 24.4 0.0 9.7
23:46 8.2 8.1 99 1006.0 21.3 S 24.4 0.0 9.7
23:47 8.2 8.1 99 1005.9 20.6 S 24.4 0.0 9.7
23:48 8.2 8.1 99 1005.9 21.3 SE 24.4 0.0 9.7
23:49 8.2 8.1 99 1005.8 19.7 S 24.4 0.8 9.8
23:50 8.2 8.1 99 1005.8 19.7 SE 25.9 1.5 9.8
23:51 8.1 8.0 99 1005.6 19.7 S 25.9 1.5 9.8
23:52 8.2 8.1 99 1005.6 16.8 WSW 25.9 2.3 9.9
23:53 8.3 8.2 99 1005.7 25.9 WSW 25.9 2.2 10.0
23:55 8.3 8.2 99 1005.6 18.3 SE 25.9 1.5 10.0
23:56 8.3 8.2 99 1005.6 18.3 SE 25.9 1.5 10.0
23:57 8.3 8.2 99 1005.7 19.7 SE 25.9 0.8 10.0
23:59 8.3 8.2 99 1005.7 25.1 S 25.9 0.0 10.0

UK - WEATHER STATION TOPSITES - UK World Weather Websites

This is a private weather station, never base important decisions or events on data from this weather station. Although every effort has been made to make the data as accurate as possible it does not meet MetOffice standards. It is proved as a guide of local weather conditions. We accept no liability for any loss which may arise from use of the data.

Copyright © Carnkie Weather 2009 - 2018.